GFSSGP_prec_cloud_054.txt.gz
Cloud_Cover
0 0 0 0 0 0 0 0 0 56 100 83 10 86 96 57 43 53 40 100 100 100 100 100 100 100 100 64 100 49 5 33 67 41 4 4 1 4 0 0 0 0 0 0 0 0 0 0 0
0 0 0 0 0 2 23 100 8 100 83 15 100 98 100 96 42 8 53 100 100 100 100 100 100 100 95 100 100 96 29 5 5 4 0 5 4 0 0 5 2 0 0 0 1 2 0 0 0
0 0 0 0 2 3 83 59 100 27 97 2 29 100 60 100 100 100 84 100 100 100 100 100 100 100 100 100 100 100 57 5 5 5 5 5 5 5 0 1 5 5 5 5 5 5 2 3 5
0 0 0 0 0 2 57 80 99 91 0 1 40 28 70 98 76 100 100 86 100 100 100 100 100 100 100 100 100 100 100 14 25 9 5 5 5 5 2 3 5 5 5 5 5 5 5 5 5
0 0 0 28 60 85 10 0 0 0 0 0 14 30 100 100 100 100 100 100 100 100 100 100 100 100 100 100 100 100 100 83 90 50 46 5 15 50 13 5 29 44 5 53 10 96 98 5 5
0 0 8 100 69 40 2 19 8 1 1 0 82 61 100 87 100 100 100 100 100 100 100 100 100 100 100 100 100 100 98 100 100 88 83 18 64 100 96 44 47 31 44 86 64 92 83 83 5
0 5 8 6 39 4 1 71 35 91 100 100 100 92 100 100 100 100 100 100 100 100 100 100 100 100 100 100 100 100 100 90 100 97 100 99 100 100 56 97 54 26 20 12 80 100 47 5 5
0 0 6 100 5 0 63 33 100 22 100 100 99 93 100 100 100 100 100 100 100 100 100 100 100 100 100 100 100 100 100 100 100 100 100 100 100 99 100 99 80 35 6 97 100 100 100 32 5
0 1 73 69 59 0 95 76 100 88 100 100 100 100 100 100 100 100 99 100 100 100 100 100 100 100 100 100 100 100 100 100 100 100 100 100 100 100 100 93 100 99 100 100 95 88 28 26 16
0 30 14 90 34 0 78 56 100 31 84 100 100 100 100 100 100 100 100 100 100 100 100 100 100 100 100 100 100 100 100 100 100 100 100 100 100 100 100 100 100 100 100 100 100 100 100 69 32
0 20 70 5 21 73 99 100 100 100 75 100 100 100 100 100 100 100 100 100 100 100 100 100 100 100 100 100 100 100 100 100 100 100 100 100 100 100 100 100 100 100 100 100 100 100 67 16 38
0 8 11 3 5 2 54 100 100 99 18 61 100 100 98 100 100 100 100 100 100 100 100 100 100 100 100 100 100 100 100 100 100 100 100 100 100 100 100 100 100 100 100 100 100 100 100 100 75
0 2 5 5 3 1 34 57 95 72 39 15 100 99 90 98 96 100 100 100 100 100 100 100 100 100 100 100 100 100 100 100 100 100 100 100 100 100 100 100 100 100 100 100 100 100 100 100 100
45 38 2 4 3 10 58 100 100 100 100 28 69 100 100 98 62 100 96 100 100 100 100 100 100 100 100 100 100 100 100 100 100 100 100 100 100 100 100 100 100 100 100 100 100 100 100 100 100
0 0 3 96 6 36 100 100 100 100 100 73 59 100 87 20 32 100 94 97 100 100 100 100 100 100 100 100 100 100 100 100 100 100 100 100 100 100 100 100 100 100 100 100 100 100 100 100 100
1 0 0 18 56 95 100 100 100 100 98 45 78 98 10 49 14 47 65 68 97 86 72 100 100 100 100 100 100 100 100 100 100 100 100 100 100 100 100 100 100 100 100 100 100 100 100 93 100
6 0 36 37 36 54 43 100 100 99 60 50 15 46 79 91 22 24 20 81 98 78 90 78 82 100 100 100 100 100 100 100 100 100 100 100 100 100 100 100 100 100 100 100 100 100 100 100 100
100 99 80 42 54 5 73 93 100 100 32 79 5 5 90 100 57 66 88 99 93 100 100 100 100 100 100 100 100 100 100 100 100 100 100 100 100 100 100 100 100 100 100 100 100 100 100 100 100
5 42 4 100 5 4 52 100 100 100 56 27 40 70 100 84 99 90 100 100 98 100 100 100 100 100 100 100 100 100 100 100 100 100 100 100 100 100 100 100 100 100 100 94 100 90 100 27 56
60 4 1 100 100 3 3 25 5 70 100 72 36 100 100 98 35 64 100 100 100 100 98 93 100 100 100 100 100 100 100 100 100 100 100 100 100 100 100 100 100 100 100 100 100 100 99 75 43
100 5 7 66 76 18 0 50 28 13 100 44 87 91 100 94 76 100 100 100 100 100 100 100 73 100 100 100 100 100 100 100 100 100 100 100 100 100 100 100 100 100 100 100 100 80 100 97 87
57 5 41 6 52 8 48 3 10 28 92 90 100 92 68 100 40 100 100 100 100 65 90 100 90 13 100 100 100 100 100 100 100 100 100 100 100 100 100 100 100 100 100 96 100 100 100 100 100
18 54 5 24 5 21 100 8 79 44 64 5 68 4 5 5 6 47 100 100 100 100 100 47 4 5 18 30 26 100 53 72 99 100 100 100 100 100 100 100 98 46 82 61 100 100 100 100 100
56 18 5 7 5 5 2 97 4 98 59 95 100 33 52 5 64 100 84 90 98 30 100 100 100 100 100 100 100 63 100 100 100 100 100 100 100 100 98 99 97 73 100 100 100 100 100 100 100
100 36 29 57 10 5 66 88 10 66 76 100 52 31 5 22 19 82 100 100 100 91 100 96 100 100 100 30 78 99 98 94 98 100 71 82 53 94 16 63 100 100 100 100 100 100 100 100 100
100 9 100 90 100 50 15 27 100 21 90 100 96 23 38 56 14 100 94 82 17 58 82 95 55 36 28 22 38 83 100 93 93 100 100 97 89 78 89 100 100 100 100 100 100 100 100 100 100
99 76 100 100 14 73 48 9 84 46 68 13 63 7 24 8 83 95 66 21 61 100 100 33 66 5 6 10 98 50 100 100 100 100 100 100 83 100 100 100 100 100 100 100 100 100 100 100 100
100 98 100 100 94 64 54 5 98 73 8 0 2 5 20 43 33 16 75 7 76 56 44 13 5 5 56 24 31 43 75 98 94 100 100 100 100 85 100 100 100 100 100 100 100 100 100 100 100
46 19 95 100 100 100 8 34 86 100 99 6 1 1 4 4 9 44 39 5 41 90 94 85 5 5 88 93 96 100 99 92 97 64 99 100 100 64 72 100 100 100 100 100 100 100 99 100 100
99 96 32 100 100 100 6 52 98 70 100 33 5 0 0 0 0 5 13 65 98 31 100 90 10 63 46 100 100 100 100 67 91 100 100 100 100 100 100 100 100 100 100 100 100 100 100 100 100

GFSSGP_prec_cloud_057.txt.gz
Cloud_Cover
5 1 0 0 0 0 0 0 0 82 100 68 100 100 99 48 100 99 68 82 100 100 100 100 100 100 100 100 100 95 6 0 1 5 18 100 5 29 12 0 0 0 0 0 0 0 0 0 0
0 0 0 0 0 0 0 0 42 100 100 17 100 100 57 84 68 96 51 25 76 100 100 100 100 100 100 100 89 97 97 84 72 24 50 82 58 64 0 1 5 0 0 0 0 0 0 0 0
0 0 0 0 0 0 0 0 0 100 88 7 56 93 70 70 100 100 98 56 100 100 100 100 100 100 100 100 100 100 100 88 42 71 76 93 27 5 4 2 4 5 5 4 4 5 5 0 0
0 0 0 0 0 0 0 98 70 16 100 99 38 98 100 100 100 100 100 94 100 100 100 100 100 100 100 100 100 94 100 100 100 100 100 100 71 14 17 84 5 5 5 5 5 5 5 4 37
0 0 0 0 0 28 36 0 0 0 15 82 2 45 71 97 88 100 100 100 100 100 100 100 100 100 100 100 100 100 100 100 100 100 44 98 100 68 84 23 5 5 5 5 16 7 45 97 98
11 1 0 0 2 6 1 1 96 100 77 66 15 28 100 100 87 100 100 100 100 100 100 100 100 100 100 100 100 100 100 100 100 95 100 100 52 84 92 64 9 5 75 81 99 100 89 100 100
96 0 0 0 0 0 0 3 100 100 100 100 5 100 100 100 100 100 100 100 100 100 100 100 100 100 100 100 100 100 100 100 100 100 97 98 62 57 98 85 59 55 80 100 100 93 7 99 96
0 0 0 1 7 8 4 4 92 99 100 100 100 100 100 100 100 100 100 100 100 100 100 100 100 100 100 100 100 100 100 100 100 100 100 99 100 100 100 100 100 100 100 100 33 49 38 48 64
0 0 0 4 91 5 5 2 100 100 100 100 100 100 100 100 100 100 100 100 100 100 100 100 100 100 100 100 100 100 100 100 100 100 100 100 100 100 100 100 100 100 100 100 100 98 84 46 5
0 0 3 20 59 0 18 67 66 100 100 100 100 100 100 100 100 100 100 100 100 100 100 100 100 100 100 100 100 100 100 100 100 90 100 100 100 100 100 100 100 100 100 100 100 100 81 5 5
0 0 3 54 50 2 0 4 94 100 100 100 100 100 100 100 100 100 100 100 100 100 100 100 100 100 100 100 100 100 100 100 92 99 100 100 100 100 100 100 100 100 100 100 100 95 100 79 98
4 0 1 35 80 2 0 35 100 100 100 100 72 92 100 99 100 100 100 100 100 100 100 100 100 100 100 100 100 100 100 100 100 99 100 100 100 100 100 100 100 100 100 100 100 100 100 100 100
0 0 0 32 40 4 2 85 100 100 100 100 76 100 100 100 100 100 100 100 100 100 100 100 100 100 100 100 100 100 100 100 100 100 100 96 100 100 100 100 100 100 100 100 89 100 100 100 100
0 0 5 4 0 8 11 46 100 100 100 100 99 44 97 92 100 100 100 100 100 100 100 100 100 100 100 100 100 100 100 100 100 100 100 100 100 100 100 100 100 100 100 100 100 100 100 100 100
0 0 0 0 0 4 5 48 100 100 100 100 100 59 56 40 94 100 100 100 100 100 100 100 100 100 100 100 100 100 100 100 100 100 100 100 100 100 100 100 100 100 100 100 100 100 100 100 100
57 0 0 0 1 5 0 4 97 60 94 75 28 70 89 8 7 16 100 100 100 100 100 100 100 100 100 100 100 100 100 100 100 100 100 100 95 100 100 100 100 100 100 100 100 100 100 100 93
100 93 10 2 56 66 0 1 57 52 92 100 99 35 21 48 15 15 67 100 96 100 91 74 100 95 100 100 100 100 100 100 100 100 100 100 100 100 100 100 100 100 100 100 100 100 100 100 100
32 100 88 70 76 100 48 0 5 82 98 100 49 5 4 96 36 99 53 10 90 72 39 55 100 100 100 100 100 100 100 100 100 100 100 100 97 100 100 100 100 100 100 100 100 100 100 100 100
5 100 57 44 95 100 92 88 2 100 47 96 100 99 8 4 68 90 100 8 96 83 100 100 92 100 100 100 100 100 100 100 100 100 100 100 100 100 100 100 100 100 100 100 100 100 100 100 100
98 100 44 55 25 78 46 17 8 3 17 46 60 100 73 6 90 98 100 99 100 100 94 99 100 100 99 85 100 100 100 100 100 100 100 100 100 100 100 100 100 98 100 100 100 100 100 100 100
30 100 100 14 59 96 8 2 0 14 34 96 100 58 91 96 15 34 68 100 100 100 36 92 48 99 72 53 100 100 100 100 100 100 100 100 100 100 100 100 100 100 100 100 100 100 100 100 95
81 100 100 44 5 3 26 0 0 5 5 99 100 39 5 96 27 4 8 100 100 100 99 77 100 100 100 100 100 100 100 100 100 100 100 100 100 100 100 100 100 100 100 100 100 100 100 100 92
100 22 69 64 5 5 1 0 77 58 5 5 3 5 5 1 5 12 16 100 100 100 10 62 97 100 99 95 100 100 100 100 100 100 100 100 100 100 100 100 100 100 100 100 100 100 100 100 100
98 93 9 48 13 100 5 4 0 67 91 12 6 8 3 38 1 5 15 72 100 100 100 8 5 27 26 5 88 100 100 100 100 100 100 100 100 100 100 100 100 100 100 100 100 100 99 100 100
96 100 53 61 23 100 100 4 0 78 14 92 5 19 6 5 5 5 5 67 88 100 98 100 85 100 100 100 95 53 99 100 98 100 100 100 100 100 93 99 100 100 100 100 99 100 100 100 100
100 100 86 55 5 100 100 4 7 5 43 4 36 26 100 7 5 5 5 5 6 21 95 97 38 100 100 100 100 98 90 38 97 60 99 100 100 100 92 100 96 100 100 100 100 100 100 100 100
100 100 38 9 80 43 91 100 100 5 7 5 2 0 0 0 0 4 5 5 80 22 5 5 27 99 64 17 17 49 54 20 99 100 99 100 100 100 100 100 100 100 100 100 100 100 100 100 100
100 100 72 91 98 70 68 86 100 5 10 60 13 5 0 0 0 0 1 7 18 27 5 5 40 40 62 5 21 100 98 98 87 72 66 92 100 100 100 100 100 100 100 100 100 100 100 100 100
100 100 97 100 67 75 79 70 100 47 5 100 68 8 0 11 0 0 0 1 16 97 10 1 4 10 54 40 64 100 100 100 100 100 93 55 85 100 100 100 100 100 100 100 100 100 100 100 100
100 100 100 70 96 42 99 100 100 85 67 100 94 39 82 3 0 0 0 0 0 22 100 96 3 97 100 100 100 100 100 100 100 100 100 100 100 100 100 100 100 100 100 77 100 100 100 100 100

GFSSGP_prec_cloud_060.txt.gz
Cloud_Cover
0 0 0 0 0 0 0 0 0 0 1 0 5 68 62 98 22 99 8 1 98 61 12 100 100 100 100 100 100 100 100 100 100 100 100 75 100 83 93 100 100 36 5 0 0 0 0 0 0
1 0 0 0 0 0 0 0 0 0 9 5 38 85 98 13 100 98 72 93 28 7 59 100 100 100 100 100 100 100 100 100 100 100 100 100 30 43 15 65 63 67 2 0 0 0 0 2 4
3 0 0 0 0 0 0 0 0 0 2 29 79 44 14 78 17 99 52 44 28 81 100 100 100 100 100 100 100 100 100 100 100 100 100 100 100 100 100 86 36 5 5 21 6 1 5 5 5
0 0 0 0 2 0 0 0 0 49 3 5 2 100 97 96 100 100 94 72 39 83 100 100 100 100 100 100 100 100 100 100 100 100 100 100 100 97 69 100 100 94 5 66 5 5 3 59 21
0 0 0 8 3 0 0 8 17 31 29 15 0 0 3 72 90 100 100 100 61 69 100 100 100 100 100 100 100 100 100 100 72 100 100 100 100 99 100 54 61 91 73 49 5 5 5 74 98
0 0 11 7 0 0 5 100 100 45 44 30 7 27 54 93 60 98 100 100 100 86 100 98 100 100 100 100 100 100 100 100 100 100 100 99 88 99 100 100 67 100 100 5 5 5 7 100 100
0 0 0 0 0 0 67 45 8 7 10 100 100 100 100 100 100 100 100 100 100 100 100 100 100 100 100 100 100 100 100 100 100 77 99 100 98 100 80 62 66 9 25 100 79 45 6 100 100
0 0 0 0 5 5 54 11 100 10 10 99 100 100 100 99 100 100 100 100 100 100 100 100 100 100 100 100 100 100 100 100 100 100 100 100 93 61 99 100 100 100 100 100 100 100 76 98 100
0 0 0 1 5 6 99 35 100 23 100 100 100 100 100 100 100 100 100 100 100 100 100 100 100 100 100 100 100 100 100 100 100 100 100 100 100 75 69 100 100 100 100 94 100 99 92 100 100
0 0 0 0 5 68 100 25 100 100 100 99 100 100 100 100 100 100 100 100 100 100 100 100 100 100 100 100 100 100 100 100 100 100 100 79 46 100 100 100 100 100 100 92 58 100 93 100 100
0 0 0 0 30 100 87 2 100 91 100 100 100 100 100 100 97 96 100 100 100 100 100 100 100 100 100 100 100 100 100 100 100 100 100 100 95 100 100 100 90 100 100 100 100 74 84 99 100
0 0 0 0 62 5 5 26 100 20 40 100 59 51 100 100 100 92 100 100 100 100 100 100 100 100 100 100 100 100 100 84 100 99 100 100 100 100 100 100 100 100 100 100 100 98 88 96 100
0 0 0 0 4 2 0 7 5 43 98 22 7 28 91 94 61 100 100 100 100 100 100 100 100 100 100 100 100 100 100 100 100 100 100 100 100 100 100 100 100 100 100 100 100 99 97 100 100
0 0 0 0 0 0 0 78 24 32 72 20 29 26 10 3 98 79 99 100 100 100 100 100 100 100 100 100 100 100 100 100 100 100 100 100 100 100 100 100 100 100 100 100 95 87 98 100 100
0 5 4 0 0 0 0 0 78 67 19 5 5 16 2 3 57 90 97 100 100 100 100 100 100 100 100 100 100 100 100 100 100 100 100 100 100 100 98 100 100 89 100 99 99 47 100 100 98
1 0 3 3 1 0 0 1 21 100 100 91 79 34 21 36 0 30 56 99 100 100 100 100 100 100 100 100 100 100 100 100 100 100 100 100 100 100 80 100 100 100 100 100 100 100 100 100 100
5 0 5 3 86 4 0 10 95 3 90 57 86 45 42 51 50 2 45 98 100 100 100 100 100 100 100 100 100 100 100 100 100 100 100 100 100 100 100 100 100 100 100 100 100 100 100 100 100
5 1 8 30 4 5 4 49 6 4 18 59 83 95 28 94 49 5 94 99 100 100 100 100 100 100 100 100 100 100 100 100 100 100 100 100 100 100 100 100 100 100 100 100 100 100 100 100 100
9 0 5 5 95 65 96 13 5 13 0 5 100 100 82 100 21 0 8 96 100 100 69 82 7 67 98 100 100 100 100 100 100 100 100 100 100 100 100 100 100 100 100 85 97 70 100 100 100
100 13 4 24 96 94 80 89 84 0 2 4 67 87 100 49 100 34 26 26 88 100 100 100 37 9 88 100 100 100 100 100 100 100 100 100 100 100 100 100 100 95 100 79 66 83 100 100 100
100 40 18 76 29 9 65 0 67 13 0 2 74 100 69 94 96 98 30 24 51 100 100 100 100 65 12 74 98 100 100 100 100 100 100 100 100 100 100 100 100 100 37 70 99 100 100 100 100
100 59 11 97 5 11 36 6 2 0 0 0 81 100 100 100 64 17 5 0 5 86 100 100 100 86 100 100 100 100 100 100 100 100 100 100 100 100 100 100 100 100 100 100 100 100 100 100 100
100 100 67 5 5 99 5 5 9 5 0 0 1 4 52 69 73 2 5 57 7 28 100 100 100 100 100 100 100 100 100 100 100 100 100 100 100 100 100 100 100 100 100 100 100 100 100 100 100
100 100 69 6 6 70 15 3 9 16 2 0 0 2 87 76 5 1 1 5 8 63 100 100 100 5 89 100 100 100 100 100 100 100 100 100 100 100 100 100 100 100 100 100 100 100 100 100 92
100 55 72 100 12 5 81 5 45 100 5 0 1 4 5 5 5 5 2 0 2 70 100 100 100 58 4 5 6 63 66 44 99 100 100 100 100 100 100 100 100 100 100 100 100 100 100 100 98
87 98 100 100 95 5 76 39 5 5 10 3 0 5 3 10 8 0 4 0 0 4 58 100 100 100 95 9 52 97 98 100 99 100 100 100 100 100 100 100 100 100 100 100 100 100 100 100 100
99 54 100 84 100 61 40 86 5 5 3 37 0 0 0 0 0 5 0 3 5 0 0 5 47 89 100 100 100 100 100 100 100 100 100 86 90 99 100 100 100 100 100 100 100 100 100 100 100
76 65 100 100 100 100 100 30 29 18 5 5 70 0 2 5 0 0 1 2 2 5 0 3 16 6 14 57 95 100 99 98 100 100 100 100 100 100 96 92 100 100 100 100 100 100 100 100 100
67 94 100 100 68 100 100 42 24 5 36 5 100 50 44 0 0 3 0 0 0 5 4 3 4 9 24 59 88 100 100 100 100 100 100 100 100 100 100 98 100 100 100 100 100 100 100 100 100
100 100 100 97 100 100 100 94 5 6 5 98 95 97 28 51 5 1 2 0 0 0 0 0 5 89 90 100 100 100 100 100 100 100 100 100 100 100 100 85 100 100 100 100 100 100 100 100 100

GFSSGP_prec_cloud_066.txt.gz
Cloud_Cover
0 0 0 0 0 4 5 0 0 0 0 0 0 0 0 0 0 0 0 24 70 100 98 97 87 100 43 53 12 5 44 100 100 98 100 100 100 96 100 99 100 100 100 97 87 100 96 99 100
0 0 0 5 1 0 0 0 0 0 0 0 0 0 0 0 0 29 26 0 98 98 99 31 55 100 79 28 10 21 96 100 100 100 100 100 100 100 100 100 100 100 100 96 100 94 99 99 100
0 0 0 0 0 0 0 0 0 0 0 0 0 0 0 0 0 1 48 19 98 100 99 78 100 100 77 85 67 95 100 100 100 100 100 100 100 100 100 100 100 100 100 100 97 81 66 32 100
0 2 0 0 0 0 0 0 0 0 0 0 0 0 0 27 1 0 24 22 99 100 100 100 100 100 100 99 100 98 95 100 100 100 100 100 100 100 100 100 100 100 17 97 100 66 100 72 6
70 5 6 1 0 0 0 0 0 0 0 0 0 0 0 3 26 0 4 48 95 95 94 62 22 14 96 81 100 100 100 100 100 100 100 100 100 100 100 100 99 100 100 82 79 37 100 100 5
100 83 40 3 0 0 0 0 0 0 0 0 2 5 4 90 57 22 87 71 26 39 96 70 4 22 97 100 100 100 100 100 100 100 100 100 100 100 100 89 37 93 100 89 96 62 5 21 78
7 3 2 0 0 0 0 0 0 0 0 3 4 6 58 100 99 100 100 100 93 17 35 49 33 61 100 100 100 100 100 100 100 100 100 100 100 99 95 50 100 100 100 80 5 5 26 86 99
0 0 0 0 0 0 0 0 0 0 0 5 5 5 100 100 100 100 100 100 100 100 100 100 100 100 100 100 100 100 100 100 100 100 100 100 100 100 100 100 75 100 81 15 5 8 99 100 89
2 0 4 0 0 0 0 0 0 0 0 5 5 10 36 83 100 100 100 100 100 100 100 100 100 100 100 100 100 100 100 100 100 100 100 100 100 100 100 100 100 100 66 29 11 93 55 100 100
4 6 1 0 0 0 0 0 0 0 0 5 5 31 87 46 100 100 100 100 100 100 100 100 100 100 100 100 100 100 100 100 100 100 100 100 100 100 100 100 100 100 86 76 99 100 100 100 100
10 10 0 0 0 0 0 0 0 0 0 5 5 27 88 90 100 100 100 100 100 100 100 100 100 100 100 100 100 100 100 100 100 100 100 100 100 100 100 100 100 100 100 99 98 56 100 100 100
65 1 0 0 0 0 0 0 0 0 0 0 18 100 81 92 100 100 100 100 100 100 100 100 100 100 100 100 100 100 100 100 100 100 100 100 100 100 100 100 90 100 98 100 100 85 100 100 99
6 5 0 0 0 0 0 0 0 0 0 1 11 98 64 98 100 100 100 100 100 100 100 100 100 100 100 100 100 100 100 100 100 100 100 100 100 96 100 92 100 100 100 100 100 88 99 87 100
39 5 0 4 0 0 0 0 0 0 0 0 8 14 98 100 100 100 100 100 100 100 100 100 100 100 100 100 100 100 100 100 100 100 100 100 100 100 100 100 100 100 100 100 100 100 94 100 97
93 5 0 2 0 0 0 0 0 0 0 0 12 1 12 100 100 100 100 100 100 100 100 100 100 100 100 100 100 100 100 100 100 100 100 100 100 100 100 100 100 84 100 100 100 100 100 100 87
42 11 0 5 0 0 0 0 0 0 0 0 4 14 2 4 97 100 58 100 100 100 100 100 100 100 100 100 100 100 100 100 100 100 100 100 100 100 100 100 100 97 100 100 100 100 100 100 100
90 80 4 5 21 1 0 0 0 0 0 0 2 67 55 4 41 6 24 100 100 100 100 100 100 100 100 100 100 100 100 100 100 100 100 100 100 100 100 100 100 100 100 100 100 97 100 100 100
100 100 12 4 45 36 0 0 0 0 0 0 0 46 100 29 21 4 46 70 100 90 100 100 100 100 100 100 100 100 100 100 100 100 100 100 100 100 100 100 100 100 100 100 100 100 100 100 100
100 100 91 5 92 90 9 4 4 0 0 0 0 8 94 40 0 3 98 100 76 67 99 100 100 100 100 100 100 100 100 100 100 100 100 100 100 100 100 100 100 100 100 100 100 100 100 99 100
100 100 53 5 86 84 8 2 0 0 0 0 0 0 0 13 69 77 82 100 99 100 87 100 100 100 100 100 100 100 100 100 100 100 100 100 100 100 100 100 100 100 100 100 100 100 100 100 100
100 100 44 10 6 76 100 59 0 1 5 1 0 0 0 0 29 100 91 100 100 99 76 89 100 100 100 100 100 100 100 100 100 100 100 100 100 100 100 100 100 100 100 100 100 100 100 100 100
100 54 93 96 44 29 100 99 5 5 5 5 3 0 0 0 2 42 100 100 100 100 97 91 96 93 52 100 98 100 100 100 100 100 100 100 100 100 100 100 100 100 100 98 100 100 100 100 100
100 100 100 100 70 100 100 66 5 5 2 5 5 0 0 0 0 14 43 57 100 100 80 87 38 46 83 100 84 80 100 100 100 100 100 100 100 100 100 100 100 100 100 100 100 100 100 100 100
100 100 100 83 57 100 100 72 4 100 5 5 1 0 0 0 0 0 0 1 67 63 55 100 100 67 54 97 100 70 70 100 99 100 94 100 100 100 100 100 100 100 100 100 100 100 100 100 100
30 100 29 9 100 100 100 74 84 74 7 5 5 3 0 0 0 0 0 1 33 75 60 100 100 100 67 89 50 91 44 77 100 100 92 73 92 100 100 100 100 100 100 100 100 100 100 100 100
98 81 6 78 91 40 9 92 100 76 92 5 5 1 4 0 0 0 0 2 0 2 38 82 100 82 30 6 5 0 15 69 100 100 100 100 100 100 100 100 100 100 100 100 68 100 100 98 100
100 96 88 7 5 6 78 61 100 87 100 48 32 6 4 0 0 0 0 2 1 0 0 0 12 38 25 76 22 35 16 11 5 28 88 54 48 59 31 94 93 99 33 34 34 53 100 100 80
78 99 99 25 15 54 100 45 100 100 100 100 89 9 4 4 3 0 0 0 5 5 0 0 0 47 31 6 59 99 93 96 100 100 100 100 100 100 100 94 80 58 22 7 21 85 80 100 100
100 100 82 22 12 46 31 100 100 100 100 100 100 79 6 5 4 4 2 0 5 31 6 6 3 3 93 100 100 88 80 22 81 100 100 100 99 95 83 83 80 66 77 77 94 100 100 100 100
100 92 85 99 5 5 59 100 100 100 100 100 100 100 18 40 5 5 2 3 0 2 4 0 0 0 5 97 100 100 92 100 100 100 100 100 100 100 100 100 100 100 99 100 100 100 100 100 100

GFSSGP_prec_cloud_069.txt.gz
Cloud_Cover
0 0 1 0 0 0 0 0 0 0 0 0 0 0 0 0 0 0 0 60 59 66 54 8 5 12 90 51 96 100 60 57 15 90 100 100 100 100 100 100 100 100 100 100 100 100 100 49 74
0 1 26 2 0 0 0 0 0 0 0 0 0 0 0 0 0 1 19 59 58 55 59 1 0 0 28 100 100 100 48 5 5 86 92 100 99 100 100 100 100 100 85 100 100 62 90 48 7
0 0 44 5 5 5 1 0 0 0 0 0 0 0 0 0 0 2 70 47 100 86 82 67 98 74 22 93 100 100 90 8 18 100 100 100 100 100 100 100 100 100 56 23 50 16 6 40 41
0 0 48 98 6 40 5 0 0 0 0 0 0 0 0 0 1 39 57 23 79 100 100 28 100 100 100 100 100 12 100 91 58 100 100 100 100 100 100 100 100 100 87 98 33 8 3 4 88
0 0 5 98 71 57 49 4 0 0 0 0 0 0 0 0 4 3 59 65 57 100 99 100 100 73 83 100 100 99 100 100 100 100 100 100 100 100 100 100 100 100 97 77 21 13 83 14 84
0 0 0 4 16 100 39 0 0 0 0 0 0 0 0 4 4 87 72 99 95 100 97 100 81 98 64 98 100 100 100 100 100 100 100 100 100 100 100 100 100 100 100 100 54 100 97 55 11
0 0 1 5 2 22 0 0 0 0 0 0 4 1 1 4 11 50 41 100 100 100 100 100 95 76 100 100 88 100 100 100 100 100 100 100 100 100 100 100 100 100 26 93 10 99 18 4 3
0 0 5 4 0 0 0 0 0 0 0 0 5 4 0 0 73 31 97 100 100 100 100 100 100 100 100 100 100 100 100 100 100 100 100 100 100 100 100 100 100 100 96 22 18 37 5 31 99
4 4 0 0 2 0 0 0 0 0 0 0 0 0 9 8 80 100 100 100 100 100 100 100 100 100 100 100 100 100 100 100 100 100 100 100 100 100 100 100 100 100 86 88 41 5 93 72 99
5 0 0 5 5 0 0 0 0 0 0 0 0 63 51 32 63 100 100 100 100 100 100 100 100 100 100 100 100 100 100 100 100 100 100 98 100 100 100 100 100 100 89 85 11 5 94 94 89
0 0 5 5 4 0 0 0 0 0 0 0 0 4 87 29 74 100 100 100 100 100 100 100 100 100 100 100 100 100 100 100 100 100 100 100 100 100 100 100 100 100 100 84 96 34 95 96 56
0 21 22 5 2 0 0 0 0 0 0 0 0 0 45 42 66 100 100 100 100 100 100 100 100 100 100 100 100 100 100 100 100 100 100 100 100 100 100 100 100 100 87 92 93 100 35 98 55
5 29 23 3 0 0 0 0 0 0 0 0 0 0 45 25 78 100 100 85 100 100 100 100 100 100 100 100 100 100 100 100 100 100 95 100 100 100 100 91 74 89 68 55 47 56 65 80 67
7 96 8 5 0 0 0 0 0 0 0 0 0 12 33 29 80 100 100 100 100 100 100 100 100 100 100 100 100 100 100 100 100 100 100 100 100 100 100 100 100 73 48 30 97 94 88 100 92
46 94 63 5 0 0 3 0 0 0 0 0 0 8 40 37 49 39 100 100 100 100 100 100 100 100 100 100 100 100 100 100 100 100 100 100 100 100 100 88 100 100 95 92 100 100 100 100 100
71 100 100 5 4 2 4 1 0 0 0 0 0 1 49 42 15 7 56 100 100 100 100 100 100 100 100 100 100 100 100 100 100 100 100 100 100 100 100 100 89 93 65 99 100 100 100 100 99
39 100 100 7 5 5 21 0 2 0 0 0 0 0 22 44 36 41 62 97 100 100 100 100 100 100 100 100 100 100 100 100 100 100 100 100 100 100 100 100 100 100 100 100 100 100 100 100 100
8 100 100 93 64 6 99 2 1 2 0 0 0 0 1 33 10 0 42 100 100 100 100 100 100 100 100 100 100 100 100 100 100 100 100 100 100 100 100 100 100 100 100 100 100 100 100 100 100
91 100 100 74 12 5 94 20 5 5 0 5 0 0 0 6 25 17 40 44 100 100 100 100 100 100 100 100 100 100 100 100 100 100 100 100 100 100 100 100 100 100 100 100 100 100 100 100 100
100 100 100 14 7 99 88 100 99 63 0 3 0 0 0 1 43 56 42 29 64 100 100 99 100 100 100 100 100 100 100 100 100 100 100 100 100 100 100 100 100 100 100 100 100 100 100 100 100
100 100 15 53 8 49 96 90 100 32 0 3 0 0 0 0 25 97 40 58 28 92 100 100 90 99 100 100 100 100 100 100 100 100 100 100 100 100 100 100 100 100 100 100 100 100 100 100 100
96 96 0 62 100 94 35 74 99 62 0 5 0 0 0 0 0 16 43 32 35 51 100 100 100 97 100 100 100 100 100 100 100 100 100 100 100 100 100 100 100 100 100 100 100 100 100 100 100
41 93 6 100 100 100 89 90 100 100 0 5 5 4 5 0 0 0 10 0 0 48 100 63 72 64 62 67 99 95 100 100 100 100 100 100 100 100 100 100 100 100 100 100 100 100 100 100 100
68 98 18 100 100 100 100 39 100 39 19 5 1 5 5 12 0 0 0 20 9 39 100 69 30 32 42 40 100 28 52 89 100 100 100 100 100 100 100 100 100 100 100 100 100 100 100 100 100
5 82 100 35 48 100 71 13 100 94 95 0 4 5 2 58 1 0 0 19 37 41 100 100 39 50 60 53 100 100 100 100 100 100 100 100 100 100 100 100 100 100 100 100 100 100 100 100 100
100 100 18 5 58 100 9 30 100 100 9 3 5 56 5 5 2 0 0 0 10 35 91 52 85 99 99 48 48 100 100 81 88 65 100 100 100 100 100 100 100 100 100 100 100 100 100 100 100
100 100 100 66 28 74 73 100 100 100 33 77 5 57 87 40 1 1 3 5 0 0 1 35 72 100 100 53 33 92 100 100 99 100 100 100 100 100 100 100 100 99 88 70 99 93 76 32 58
100 100 100 100 99 25 98 100 100 100 95 4 95 93 100 100 14 5 4 4 2 3 0 0 5 71 48 22 32 18 59 30 29 5 5 10 65 5 11 26 66 53 47 5 5 5 5 54 55
100 100 87 42 73 16 92 96 100 100 100 74 100 78 100 100 91 41 37 2 5 5 4 0 0 0 3 84 77 85 78 100 100 70 72 97 86 100 100 100 86 24 6 5 10 55 89 99 99
100 98 81 32 99 8 91 100 100 100 100 80 41 100 100 98 6 100 90 79 5 4 95 22 0 3 0 5 40 98 34 87 84 98 100 100 96 93 100 100 100 100 41 28 100 100 92 100 100

GFSSGP_prec_cloud_072.txt.gz
Cloud_Cover
0 0 0 0 0 0 0 0 0 0 0 0 0 0 0 0 0 2 0 17 41 100 100 0 0 9 21 29 6 81 100 100 94 34 39 99 100 96 78 96 83 74 100 100 100 100 99 100 100
0 0 0 0 0 13 4 1 0 0 0 0 0 0 0 0 0 0 1 50 49 100 100 96 0 20 1 28 19 20 100 100 100 99 44 87 98 86 97 100 100 100 100 100 84 21 24 88 54
0 0 0 0 2 75 18 5 5 0 2 4 0 0 0 0 0 1 96 55 54 96 80 53 24 86 99 100 100 37 100 100 100 93 10 100 100 100 100 100 100 100 100 100 82 95 84 6 5
0 0 0 0 0 0 18 98 6 64 42 5 0 1 0 0 0 4 79 60 50 23 65 100 100 100 100 100 100 100 100 94 89 100 26 100 97 100 100 100 100 100 100 100 54 98 47 5 2
0 0 0 0 0 0 0 4 93 84 38 1 0 2 0 0 0 9 12 44 83 57 52 100 98 100 100 100 100 100 100 99 100 84 37 100 100 100 100 100 100 100 100 100 79 98 42 10 13
0 0 0 0 1 1 0 3 2 4 0 0 0 0 0 0 0 19 37 78 98 92 59 100 25 72 100 100 99 100 100 34 100 97 100 70 100 100 100 100 100 100 99 91 21 100 92 30 25
0 0 0 0 13 5 0 0 0 0 0 0 0 0 0 0 0 1 47 44 81 100 100 99 100 100 55 86 100 100 96 94 100 88 99 100 100 100 100 100 100 100 100 96 95 18 42 80 99
0 0 0 5 5 0 0 0 0 0 0 0 0 0 0 0 2 4 26 85 100 100 100 100 97 97 100 100 100 90 100 94 100 100 100 100 100 100 100 100 100 100 100 100 68 100 98 100 11
0 3 5 2 5 0 0 0 0 0 0 0 0 0 0 0 5 8 72 100 100 98 100 100 100 100 100 100 100 98 100 100 100 100 100 100 100 100 100 100 100 100 100 100 100 100 100 5 5
0 5 4 3 0 0 4 0 0 0 0 0 0 0 0 2 6 10 93 98 100 89 85 100 100 100 100 100 100 100 100 100 100 100 100 100 100 100 100 100 100 100 100 100 100 37 59 5 5
4 5 5 0 1 5 0 0 0 0 0 0 0 0 0 0 7 7 81 100 100 100 100 100 100 100 100 100 100 100 100 100 100 100 100 100 100 100 100 100 100 100 100 99 74 87 5 5 25
5 5 0 3 5 5 0 0 0 0 0 0 0 0 0 0 4 5 99 100 100 100 100 100 100 100 100 100 100 100 100 100 100 100 100 100 100 100 100 100 100 100 99 100 99 90 10 46 81
5 5 3 5 77 4 4 0 0 0 0 0 0 0 0 0 5 2 100 100 100 100 100 100 100 100 100 100 100 100 100 100 100 100 100 100 100 100 100 100 100 96 100 100 100 23 95 82 70
6 4 8 5 28 9 5 0 0 0 0 0 0 0 0 0 0 1 100 100 100 100 100 100 100 100 100 100 100 100 100 100 100 100 100 100 100 100 100 99 100 99 100 99 99 84 30 92 64
5 4 72 5 15 5 5 0 0 0 0 0 0 0 0 0 0 0 63 100 100 100 100 100 100 100 100 100 100 100 100 100 100 100 100 100 100 100 100 100 100 99 78 68 92 43 79 100 68
5 5 5 14 100 33 5 0 0 0 0 0 0 0 0 0 0 0 0 100 100 100 100 100 100 100 100 100 100 100 100 100 100 100 100 100 100 100 100 100 100 100 100 95 100 97 100 91 54
12 1 5 100 100 63 4 1 5 1 0 0 0 0 0 0 0 0 0 4 100 100 100 100 100 100 100 100 100 100 100 100 100 100 100 100 100 100 100 100 100 100 96 87 100 100 100 96 87
72 5 86 100 100 98 58 2 49 2 0 0 0 0 0 0 0 0 0 0 27 100 91 100 100 100 100 99 100 100 100 100 100 100 100 100 100 100 100 99 100 100 100 100 90 100 100 100 100
44 96 100 100 100 99 5 31 98 4 0 0 0 0 0 0 0 0 4 0 1 57 100 100 100 100 100 100 100 100 100 100 100 100 100 100 100 100 100 100 100 100 100 100 100 100 100 100 100
13 87 100 5 100 100 100 6 100 86 69 0 0 0 0 0 0 0 0 0 0 21 100 98 100 100 100 100 100 100 100 100 100 100 100 100 100 100 100 100 100 100 100 100 100 100 100 100 100
12 100 91 5 97 100 100 88 3 47 100 7 0 0 0 0 0 0 0 0 0 24 42 100 100 100 100 100 100 100 100 100 100 100 100 100 100 100 100 100 100 100 100 100 100 100 100 100 100
42 80 100 5 24 100 100 100 5 2 22 15 0 0 0 4 0 0 0 0 0 0 51 46 100 100 91 100 100 86 100 100 100 100 100 100 100 100 100 100 100 100 100 100 100 100 100 100 100
100 41 38 33 23 98 100 100 30 38 2 24 0 0 0 0 2 0 0 0 0 0 1 50 100 82 84 100 99 87 100 100 100 100 100 100 100 100 100 100 100 100 100 100 100 100 100 100 100
83 5 5 18 95 100 100 100 100 53 4 11 5 3 0 0 6 2 0 0 0 0 0 10 14 36 91 100 99 100 100 100 100 90 100 100 100 100 100 100 100 100 100 100 100 100 100 100 100
86 30 32 55 94 100 100 100 100 99 32 4 89 6 0 0 0 2 0 0 0 0 0 0 0 2 62 83 99 68 95 100 100 93 100 100 100 100 100 100 100 100 100 100 100 100 100 100 100
100 100 72 80 81 52 100 100 100 100 99 10 90 0 0 0 4 1 0 0 0 0 0 0 0 0 2 49 67 90 100 73 100 100 100 100 100 100 100 100 100 100 100 100 100 100 100 100 100
100 100 91 71 19 5 44 100 100 100 100 100 86 5 5 0 10 100 5 5 0 0 0 0 0 0 0 1 17 32 22 100 100 100 96 88 99 100 100 100 100 100 100 100 100 100 100 100 100
100 99 100 82 100 100 100 100 100 100 100 100 95 82 0 4 5 53 100 26 50 0 0 0 0 0 0 0 0 0 4 23 100 100 95 100 94 100 100 100 100 100 100 100 100 100 100 73 72
100 99 100 100 100 100 100 100 100 100 100 100 100 100 26 5 67 83 100 100 100 2 0 3 4 0 0 0 0 0 4 5 14 100 99 86 95 46 96 69 91 45 19 32 26 53 100 89 23
100 100 66 88 94 74 98 100 100 100 100 100 100 100 100 44 6 11 18 100 100 87 0 0 0 5 1 4 0 3 5 4 98 54 86 100 100 100 99 67 63 96 100 77 98 67 37 26 77

GFSSGP_prec_cloud_075.txt.gz
Cloud_Cover
0 0 0 0 0 0 0 0 0 0 0 0 0 0 0 0 1 3 1 3 0 2 38 2 0 40 4 5 100 23 12 3 5 5 5 62 37 8 26 5 6 96 100 99 61 77 100 100 54
0 0 0 0 0 0 70 0 0 3 0 0 0 0 3 27 2 0 0 0 0 18 89 64 1 68 44 12 14 53 17 2 82 90 5 63 54 51 69 7 8 65 100 98 96 100 100 98 86
0 0 0 0 0 0 19 0 0 4 5 3 0 5 2 3 0 0 0 0 30 47 94 92 8 63 99 87 100 100 100 99 100 100 93 99 99 96 11 94 25 100 49 99 100 100 92 76 41
0 0 0 0 0 2 0 0 0 0 24 100 89 5 10 0 0 0 0 0 85 46 99 13 32 100 100 100 100 100 100 100 99 100 100 84 100 86 81 95 100 22 79 100 100 100 90 5 14
0 0 0 0 0 0 0 0 0 0 0 2 4 2 48 0 0 0 0 0 2 38 72 3 92 100 100 100 100 100 100 100 100 100 100 100 100 95 5 100 100 83 94 100 93 100 83 28 10
0 0 0 0 0 0 1 0 0 0 0 2 2 14 8 0 0 0 0 0 5 54 92 54 100 100 96 98 72 100 100 100 100 100 100 100 100 100 73 100 99 100 100 100 100 100 100 100 74
0 0 0 0 0 0 3 0 0 0 0 0 53 3 8 0 0 0 0 9 56 100 100 99 79 100 100 100 100 100 100 100 100 100 100 100 86 100 100 95 100 100 100 100 100 100 69 45 7
0 0 0 0 0 5 4 0 0 0 0 0 0 5 28 3 0 0 0 41 57 100 100 100 100 100 100 100 100 100 100 100 100 100 100 92 27 100 100 97 100 100 100 100 100 100 97 38 78
0 0 0 0 0 5 0 0 0 0 0 0 0 0 0 0 0 0 14 97 99 100 100 100 97 97 100 100 100 100 100 100 100 100 100 100 100 100 100 100 100 100 100 91 100 50 99 61 100
0 0 0 0 2 3 0 0 0 0 0 3 3 0 0 0 0 0 3 93 100 98 100 100 100 100 98 100 100 100 100 100 100 100 100 100 100 100 100 100 100 100 100 100 100 100 100 100 100
2 0 0 0 2 0 0 0 0 0 0 3 4 12 0 0 0 0 0 46 100 100 100 100 100 100 83 100 100 100 100 100 100 100 100 100 100 100 100 100 100 100 100 100 100 100 100 100 41
0 0 0 0 3 4 0 4 0 0 0 0 0 0 0 0 0 0 0 36 100 100 100 100 100 100 100 100 100 100 100 100 100 89 100 100 100 100 100 100 100 100 100 100 100 100 100 100 83
3 1 5 0 5 2 0 0 0 2 0 0 0 0 0 0 0 0 0 22 100 98 100 100 100 100 100 100 100 100 100 100 100 100 100 100 100 100 100 100 100 100 100 100 100 100 100 39 12
0 4 5 12 5 5 5 0 5 2 0 0 0 0 0 0 0 0 0 1 100 99 100 100 100 100 100 100 100 100 100 100 100 100 100 100 100 100 100 100 100 100 100 100 95 100 58 100 30
2 0 3 31 6 5 47 0 5 2 0 0 0 0 0 0 0 0 0 2 100 94 100 100 100 100 100 100 100 93 100 100 100 100 100 100 100 100 100 100 100 100 100 100 100 86 88 85 79
0 4 6 58 5 22 52 4 5 2 0 0 0 0 0 0 0 0 0 0 86 100 100 100 100 100 100 100 100 100 100 100 100 100 100 100 100 100 100 100 96 100 100 100 100 82 70 100 67
5 5 4 65 22 67 5 6 100 2 5 1 0 0 0 0 0 0 0 0 3 100 98 100 100 100 100 100 100 100 100 100 100 100 100 100 100 100 100 100 100 100 100 100 95 100 100 98 99
100 10 87 100 84 39 8 29 100 6 3 1 0 0 0 0 0 0 0 0 0 6 99 38 100 100 100 100 100 100 100 100 100 100 100 100 100 100 100 100 100 100 100 100 100 100 69 66 69
100 75 100 100 77 69 6 46 100 38 5 0 0 0 1 0 0 0 0 0 0 0 23 100 100 100 100 100 100 100 100 100 100 100 100 100 100 100 100 100 100 100 100 100 100 100 67 100 55
52 100 100 83 74 9 81 100 100 16 5 75 10 5 5 0 0 0 0 0 0 0 33 72 100 96 100 100 100 100 100 100 100 100 100 100 100 100 100 100 100 98 99 100 100 89 100 100 100
82 72 100 71 98 85 100 100 100 97 2 100 98 70 3 4 0 0 0 0 0 0 6 51 76 93 100 100 100 100 100 100 100 100 100 100 100 100 100 100 99 100 100 100 100 100 100 100 100
100 100 100 88 98 96 99 100 100 100 87 5 11 80 0 0 0 0 0 0 0 0 0 22 48 90 97 100 100 100 100 100 100 100 100 100 100 100 100 100 100 100 100 100 100 100 100 100 100
95 100 99 100 68 61 59 100 100 100 51 5 5 5 0 0 0 0 0 0 0 0 0 3 100 96 98 100 100 100 100 100 100 100 100 100 100 100 100 100 100 100 100 100 100 100 100 100 100
100 100 93 100 72 45 100 100 100 100 100 31 5 99 17 5 0 0 0 0 0 0 0 0 53 68 100 100 96 100 100 100 100 100 100 100 100 100 100 100 100 100 100 100 100 100 100 100 100
100 100 100 100 100 99 100 100 100 97 88 100 28 5 1 6 0 0 0 0 0 0 0 0 0 2 97 73 99 84 100 97 95 100 100 100 100 100 100 100 100 100 100 100 100 100 100 100 100
100 100 100 100 100 100 99 100 100 100 100 100 5 69 4 24 0 0 0 3 2 0 0 0 0 0 10 100 73 90 100 100 92 85 46 72 66 99 98 100 100 100 100 100 100 100 100 100 100
100 100 100 100 100 100 96 100 100 100 100 100 98 98 64 5 1 0 0 33 95 0 6 3 0 0 0 7 37 60 93 100 80 98 92 41 69 100 100 100 100 100 100 100 100 100 100 100 100
100 100 100 100 100 100 100 100 100 100 100 100 100 100 100 100 49 4 0 0 100 100 100 27 1 0 0 0 0 2 2 25 14 79 47 98 77 60 98 100 100 100 100 100 100 100 100 100 100
100 100 100 100 100 100 100 100 100 99 100 100 100 100 100 45 23 5 4 0 5 72 100 100 83 1 0 0 0 0 0 5 29 3 34 44 100 100 100 100 100 100 100 100 100 100 100 100 100
100 100 100 100 100 100 100 100 100 100 100 100 100 100 100 100 43 72 99 5 5 0 5 47 100 100 0 0 0 0 0 0 0 2 22 3 0 30 49 78 81 100 100 97 69 53 90 100 99

GFSSGP_prec_cloud_078.txt.gz
Cloud_Cover
0 0 0 0 0 0 0 68 1 0 0 0 0 0 0 0 3 1 0 0 0 23 0 0 0 0 6 89 97 16 82 3 33 33 58 90 12 12 99 97 62 5 63 82 17 98 100 100 75
0 0 0 0 0 0 33 81 0 0 0 0 0 4 1 57 5 3 0 0 0 4 15 4 0 0 0 72 94 72 98 100 80 62 100 100 90 19 100 100 100 64 5 51 100 100 100 25 82
0 0 0 0 0 0 5 35 0 0 0 0 0 0 1 0 0 0 0 0 0 2 2 6 0 3 0 4 16 100 100 100 100 100 100 100 100 100 100 100 100 100 5 100 89 100 36 5 93
0 0 0 0 0 0 61 0 0 0 0 0 3 0 8 83 30 4 0 0 0 74 2 38 0 0 0 19 99 100 100 100 100 100 100 100 90 100 100 100 100 100 5 100 100 100 5 96 74
0 0 0 0 0 0 38 0 0 0 0 0 1 0 1 2 0 0 0 0 0 29 47 1 0 6 4 94 22 100 100 100 100 100 100 100 100 100 100 100 100 97 63 96 100 38 63 45 100
0 0 0 0 0 92 71 0 0 0 0 0 1 4 53 0 0 0 0 0 0 1 0 90 37 21 68 100 37 100 100 100 100 100 100 100 100 100 100 100 100 100 100 63 14 96 90 99 100
0 2 0 0 0 0 45 1 0 0 0 0 0 8 42 4 4 0 0 0 0 0 74 62 78 82 59 100 100 100 100 100 100 100 100 100 100 100 100 100 95 64 100 99 97 100 100 100 100
0 5 0 0 0 0 5 0 0 0 0 0 0 0 1 2 1 0 0 0 36 100 82 42 100 30 100 100 100 100 100 100 100 100 100 100 100 100 100 100 57 78 98 80 100 100 100 100 100
5 1 0 0 0 26 36 1 0 0 0 0 0 0 0 0 0 0 0 0 0 33 29 100 100 100 100 100 100 100 100 100 100 100 100 100 89 98 100 99 89 100 100 100 100 100 100 100 100
5 4 0 0 0 1 0 0 0 1 1 0 0 5 5 0 0 0 0 0 0 28 68 87 100 100 100 100 100 100 100 100 100 100 100 100 100 86 100 100 100 100 100 100 100 100 100 100 72
3 4 0 0 2 2 3 0 0 5 5 2 0 0 0 0 0 0 0 0 0 60 99 12 68 100 100 100 100 100 100 100 100 100 100 100 100 100 100 100 100 100 99 100 100 100 82 100 100
4 5 1 0 0 1 3 0 0 24 5 4 0 0 0 0 0 0 0 0 0 78 100 100 100 72 100 100 100 100 100 100 100 100 100 100 100 100 100 100 100 100 100 100 100 100 100 100 100
5 1 1 5 1 0 5 2 0 18 8 12 0 0 0 0 0 0 0 0 0 84 100 97 100 90 82 99 100 100 100 100 100 100 100 100 100 100 100 100 100 100 100 100 100 100 100 100 100
5 5 5 5 5 5 5 3 5 5 29 7 4 0 0 0 0 0 0 0 0 79 100 96 76 100 100 93 100 100 100 100 100 100 100 100 100 100 100 100 100 100 100 100 100 100 100 100 100
5 5 5 5 8 5 5 5 5 5 32 5 5 5 0 0 0 0 0 0 0 45 100 100 97 100 100 100 99 100 100 100 100 100 100 100 100 100 100 100 100 100 100 100 100 100 100 100 100
5 4 5 14 4 4 5 90 5 11 5 73 5 5 0 0 0 0 0 0 0 0 100 100 100 98 100 100 100 96 87 100 100 100 100 100 100 100 100 100 100 100 100 100 100 100 88 100 92
5 23 28 86 0 1 6 63 5 87 5 64 5 58 4 0 0 0 0 0 0 0 88 67 100 100 100 100 100 100 100 96 100 100 100 100 100 100 100 100 100 100 96 100 100 100 95 88 97
2 83 92 5 88 93 2 62 5 86 5 27 35 12 5 0 0 0 0 0 0 0 9 99 100 100 100 100 100 100 100 100 100 100 100 100 100 100 100 100 100 100 100 100 100 100 100 100 100
81 64 6 72 100 100 100 64 5 42 40 30 52 5 5 5 0 0 0 0 0 0 0 100 100 100 100 100 100 100 100 100 100 100 100 100 100 100 100 100 100 100 100 100 100 100 100 100 100
100 69 99 100 100 99 54 20 5 12 39 26 90 17 21 9 5 0 0 0 0 0 0 36 100 100 100 100 100 100 100 100 100 100 100 100 100 100 98 100 100 100 100 100 100 100 100 100 100
100 62 95 100 100 100 76 6 10 4 40 98 100 40 37 99 5 0 0 0 0 0 0 22 37 100 100 100 100 100 100 100 100 100 100 100 100 100 100 100 100 100 100 100 100 100 100 100 100
95 100 100 100 100 78 100 20 5 58 10 100 100 100 100 100 17 0 0 0 0 0 0 0 5 100 49 100 100 100 100 100 98 99 88 100 100 100 100 100 100 100 100 100 100 100 100 100 100
100 100 100 100 100 100 81 76 100 98 5 97 100 100 18 5 0 0 0 0 0 0 0 0 3 100 95 99 100 100 100 100 100 100 100 100 100 100 100 100 100 100 100 100 100 100 100 100 100
100 100 100 100 100 97 100 86 100 100 18 99 100 100 79 5 0 0 0 0 0 0 0 0 0 14 100 100 100 100 100 100 100 95 100 100 100 100 100 100 100 100 100 100 100 100 100 100 100
100 100 100 100 97 71 100 91 100 100 22 100 100 100 100 55 1 0 0 0 0 0 0 0 0 7 37 100 98 45 62 70 50 93 100 99 99 100 100 100 100 100 100 100 100 100 100 100 100
100 100 100 100 94 99 100 100 100 100 12 8 100 100 100 100 5 5 5 0 0 0 28 0 2 0 0 32 82 83 81 100 82 92 100 20 83 91 100 100 100 100 100 100 100 100 100 100 100
100 100 100 100 100 100 100 100 100 100 100 21 64 62 100 100 58 5 5 0 0 0 9 68 100 90 0 46 100 100 100 100 100 96 91 94 24 25 100 100 100 92 100 100 100 100 100 100 100
100 100 100 100 100 88 100 100 100 100 100 100 95 56 99 100 100 100 25 0 0 0 0 100 100 100 12 1 1 85 100 95 100 100 100 88 99 10 25 42 53 77 26 100 100 100 100 100 100
100 100 100 100 100 100 100 100 100 100 100 100 99 62 100 100 100 100 100 99 8 0 0 0 58 21 96 100 40 0 26 64 100 100 100 100 100 47 98 100 100 100 100 100 100 100 100 100 100
100 100 100 100 100 100 100 100 100 100 99 86 100 82 18 100 100 100 100 75 5 1 4 3 5 3 2 100 100 4 0 0 0 31 2 19 42 44 3 64 100 100 100 100 100 100 100 100 100

GFSSGP_prec_cloud_081.txt.gz
Cloud_Cover
0 0 0 0 0 0 0 0 0 0 0 0 0 0 0 0 0 0 0 0 0 0 0 0 0 0 0 0 1 4 79 98 43 92 98 68 5 5 5 32 99 100 100 100 11 100 100 17 0
0 0 0 0 0 0 0 0 0 0 0 0 0 0 0 0 0 0 0 0 0 0 0 0 0 0 0 0 0 5 39 36 48 89 98 95 58 61 18 90 99 100 100 97 95 100 95 0 0
0 0 0 0 0 0 0 0 0 0 0 0 0 0 0 0 0 0 0 4 0 0 0 0 0 0 54 36 10 3 65 94 100 100 100 100 100 100 100 88 100 100 86 100 70 100 5 11 78
0 0 0 0 0 0 0 1 0 0 0 0 0 0 0 0 0 0 0 0 3 2 0 0 0 7 0 7 5 45 89 67 100 100 100 100 100 100 100 99 100 100 100 99 87 63 5 46 100
0 0 0 0 0 0 0 4 0 0 0 0 0 0 0 0 0 4 0 0 0 0 1 0 0 0 0 0 13 79 88 86 100 100 100 100 100 100 100 100 100 100 100 99 93 45 31 8 86
22 0 0 0 0 0 0 4 5 0 0 0 0 0 0 0 0 0 0 0 0 1 5 0 0 0 0 0 3 2 15 18 100 100 100 100 100 100 100 100 100 100 99 100 100 80 95 16 73
95 0 0 0 0 0 2 0 0 0 0 0 0 0 0 0 0 0 0 0 0 0 44 2 77 2 2 1 37 2 2 61 100 95 100 100 100 100 100 100 100 99 88 100 100 86 58 46 79
0 0 0 0 2 5 0 0 0 0 0 0 0 0 0 0 0 0 0 0 0 0 0 7 100 47 14 6 100 100 94 96 100 100 100 100 100 100 100 100 100 99 100 100 98 59 60 74 100
0 0 0 0 0 2 1 44 4 0 0 0 0 0 0 0 0 0 0 0 0 0 0 0 97 100 26 94 100 100 100 100 100 100 100 100 100 100 100 100 100 98 64 100 44 44 100 100 100
0 0 0 0 0 0 0 17 5 0 0 0 0 0 0 0 0 0 0 0 0 0 0 4 100 42 95 100 100 100 100 100 100 100 100 100 100 100 100 32 100 51 76 80 15 44 100 100 100
0 0 0 3 4 2 3 0 5 0 0 0 0 0 5 0 0 0 0 0 0 0 0 34 55 52 100 100 100 100 100 100 100 100 100 100 100 100 100 69 84 91 100 100 84 100 100 100 92
0 8 93 100 100 15 4 5 5 5 0 0 0 5 5 5 0 0 0 0 0 0 0 51 29 34 98 100 100 100 100 100 100 100 100 100 100 100 100 100 100 90 100 97 100 86 91 100 93
100 100 100 100 9 5 5 5 5 5 1 3 0 5 5 5 0 0 0 0 0 0 0 4 83 100 100 100 100 100 100 100 100 100 100 100 100 100 100 100 100 99 100 100 100 95 64 100 100
100 100 65 34 5 5 0 5 5 5 5 5 5 4 5 6 0 0 0 0 0 0 0 66 79 100 98 100 90 100 100 100 100 100 100 100 99 100 99 100 100 100 100 100 100 80 91 100 77
100 100 100 44 70 48 1 1 5 5 5 5 60 6 6 5 5 0 0 0 0 0 0 9 100 83 73 100 100 100 100 100 100 100 100 100 100 100 100 100 100 100 100 99 96 85 100 100 100
86 10 1 74 100 27 6 4 4 0 5 0 27 13 5 12 5 0 0 0 0 0 0 31 100 100 50 95 100 100 100 100 100 100 100 100 100 100 100 100 100 100 100 100 100 100 100 100 100
5 0 5 39 5 4 14 4 32 0 5 0 6 15 5 8 50 3 0 0 0 0 0 27 98 100 100 86 92 100 100 100 100 100 100 100 100 100 100 100 100 100 100 100 100 100 100 100 100
5 2 0 3 46 82 5 2 70 3 0 0 6 11 5 52 84 6 0 0 0 0 0 32 81 100 100 100 99 99 100 100 100 100 100 100 100 100 100 100 100 100 100 100 100 100 100 100 100
90 68 4 5 14 89 5 90 4 5 3 1 2 47 5 93 92 6 2 0 0 0 1 22 100 100 100 100 98 100 100 100 100 100 100 100 100 100 100 100 100 100 100 100 100 100 99 100 100
49 13 2 0 27 100 33 70 6 91 3 5 5 34 5 65 76 6 5 0 0 0 5 0 100 100 100 100 100 100 100 99 100 98 100 100 100 100 100 100 100 100 100 100 100 100 97 100 100
5 5 62 79 100 100 100 34 14 88 5 5 5 6 6 99 100 74 58 2 0 0 2 27 100 100 100 100 100 100 100 100 100 100 100 100 100 100 100 100 100 100 100 100 100 100 100 100 100
0 64 18 100 100 49 98 34 2 100 5 4 9 32 48 96 100 100 100 4 0 0 0 3 74 91 82 100 100 100 100 100 100 100 100 100 100 100 100 100 100 100 100 100 100 100 100 100 100
0 1 62 25 100 100 100 87 24 100 66 4 89 22 47 96 100 100 55 5 0 0 0 0 11 65 91 86 100 100 99 100 100 100 97 100 100 100 100 99 100 100 100 100 100 100 100 100 100
5 27 9 100 100 100 46 58 100 100 100 8 10 24 100 100 100 100 65 7 5 3 0 0 0 63 100 100 100 100 89 87 100 100 100 100 100 100 100 100 100 100 100 100 100 100 100 100 100
53 100 100 100 100 88 69 25 100 100 100 6 5 32 100 100 100 100 69 7 5 5 0 0 0 1 98 99 100 100 93 100 100 100 86 100 100 100 100 100 100 100 100 100 100 100 100 100 100
100 100 100 100 84 21 100 46 100 100 100 48 5 92 100 100 100 100 100 88 5 5 5 0 0 0 48 100 100 100 100 100 100 100 100 91 100 100 100 100 100 100 100 100 100 100 100 100 100
100 98 100 100 100 100 100 100 100 100 100 92 92 98 100 100 100 100 100 100 52 5 5 0 0 44 56 58 100 100 100 97 100 84 100 100 70 100 96 100 100 100 100 100 100 100 100 100 100
100 100 100 100 100 100 100 100 100 100 100 100 92 59 42 100 100 100 100 100 100 57 5 0 0 0 28 73 58 100 35 31 45 44 79 100 100 93 82 68 72 99 96 100 100 100 100 100 100
100 100 100 100 93 100 100 100 100 100 100 100 100 98 19 88 100 100 100 100 100 100 29 0 0 0 1 5 12 11 71 97 90 100 90 100 99 100 50 2 20 38 42 76 86 91 100 100 100
100 100 100 100 100 100 100 100 100 100 100 100 100 100 100 88 96 100 100 100 100 100 98 100 7 3 5 50 5 0 4 16 100 100 100 100 100 100 88 22 12 0 2 62 72 100 99 100 50

GFSSGP_prec_cloud_084.txt.gz
Cloud_Cover
0 0 0 0 0 0 0 0 0 0 0 0 0 0 0 0 0 0 0 0 0 2 28 12 0 0 0 0 0 0 12 0 5 19 4 11 5 47 33 28 5 5 46 26 86 100 100 98 5
0 0 0 0 0 0 0 0 0 0 0 0 0 0 0 0 0 0 0 0 0 0 18 50 0 0 0 0 0 0 1 96 44 1 13 40 34 90 79 26 5 8 65 85 98 100 99 10 5
0 0 0 0 0 0 0 0 0 0 0 0 0 0 0 0 0 0 0 0 0 0 0 0 0 0 0 0 0 0 3 9 13 44 98 33 100 100 92 100 98 93 100 100 100 96 68 5 5
0 0 0 0 0 0 0 0 0 0 0 0 0 0 0 0 0 0 0 0 0 0 0 0 0 57 2 0 0 34 85 78 100 40 100 100 100 100 100 100 100 100 89 91 100 100 100 80 25
0 0 0 0 3 4 0 0 0 0 0 0 0 0 0 0 0 0 0 0 0 10 1 0 50 51 88 98 75 17 5 100 100 100 100 100 100 100 100 100 100 100 100 100 96 95 92 100 100
0 0 0 3 12 0 0 0 0 0 0 0 0 0 0 0 0 0 0 0 0 26 15 14 26 5 2 28 22 4 2 85 100 91 100 100 100 100 100 100 100 100 100 100 85 98 100 100 100
0 0 1 3 0 0 0 0 0 0 0 0 0 0 0 0 0 0 0 0 0 2 8 11 29 2 0 0 0 2 5 31 7 99 100 100 100 100 100 100 100 100 100 100 85 94 44 100 100
9 0 2 5 0 0 0 0 0 0 0 0 0 0 0 0 0 0 0 0 0 3 9 10 31 100 79 33 10 5 5 2 8 100 100 100 100 100 100 100 100 100 100 70 100 100 97 99 100
8 5 3 7 0 1 0 0 0 0 1 2 0 0 0 0 0 0 0 0 0 0 1 18 25 99 91 27 54 25 76 99 79 51 100 100 100 100 100 100 100 100 100 36 41 58 40 36 99
100 86 82 18 99 1 0 0 24 2 25 0 0 0 0 0 0 0 0 0 0 0 0 7 12 100 80 53 99 81 99 100 79 70 100 100 100 100 100 100 100 100 82 27 74 5 4 38 89
97 5 74 100 10 0 0 63 68 8 3 2 3 4 0 0 0 0 0 0 0 0 8 16 19 100 36 92 100 100 100 100 100 81 100 100 100 100 100 100 100 100 98 88 46 46 5 65 100
66 35 99 100 8 8 44 36 100 2 5 5 4 5 0 0 0 1 0 0 0 0 1 17 11 16 9 81 100 100 100 100 100 100 100 100 100 100 100 100 100 100 100 96 97 46 30 95 100
100 100 100 100 100 45 46 40 94 66 0 1 0 5 0 0 4 5 0 0 0 0 28 44 16 17 79 99 100 100 100 100 100 100 100 100 100 100 100 100 100 100 100 72 86 72 74 96 95
100 100 100 100 100 100 100 100 76 63 1 4 5 5 1 0 5 5 4 0 0 5 52 30 13 2 100 100 100 100 100 100 100 100 100 100 100 100 100 100 100 100 100 90 88 100 79 60 100
100 100 100 100 100 100 100 71 79 5 0 0 0 5 4 0 5 5 5 0 0 0 31 32 26 5 17 22 92 100 100 100 100 100 100 100 100 100 100 100 100 100 100 100 100 93 100 63 100
100 100 98 100 74 93 94 91 22 5 0 0 0 0 4 0 4 5 5 0 0 30 38 38 35 18 42 100 100 100 100 100 100 100 100 100 100 100 100 100 100 100 91 99 80 100 100 92 100
87 94 59 96 29 32 21 4 5 1 0 1 0 0 5 0 4 5 5 4 0 31 70 92 26 31 66 65 100 100 100 100 100 100 100 100 100 100 100 100 100 100 100 89 100 100 100 100 100
99 6 2 6 49 79 2 0 0 0 0 0 0 0 0 0 0 5 10 6 5 38 69 100 53 88 85 100 100 100 100 100 100 100 100 100 100 100 100 100 100 100 100 100 100 100 100 100 100
5 5 5 5 55 16 4 0 0 0 0 3 0 0 0 5 0 5 13 5 26 72 83 100 100 96 100 100 100 100 100 100 100 100 100 100 100 100 100 100 100 100 100 100 100 100 100 100 100
31 5 5 5 5 6 3 0 0 0 4 0 0 0 1 5 5 3 52 18 9 92 58 46 80 100 77 100 100 100 98 100 100 100 100 100 100 100 100 100 100 100 100 100 100 100 100 100 100
28 4 5 4 5 43 40 0 0 0 0 0 0 0 2 90 5 5 96 5 27 79 84 0 5 100 100 100 97 100 100 100 100 100 100 100 100 100 100 100 100 100 100 100 100 100 100 100 100
1 4 1 0 2 2 24 44 0 2 3 4 0 1 5 100 8 5 96 7 75 49 42 12 11 81 100 100 100 100 100 100 100 100 100 98 100 100 100 100 100 100 100 100 100 100 100 100 100
59 5 0 0 0 32 5 72 0 6 0 6 64 16 100 100 85 5 76 32 100 43 54 33 96 94 98 100 100 100 100 100 100 100 100 96 100 100 100 100 100 100 100 100 100 100 100 100 100
5 4 2 1 17 84 2 24 0 25 44 100 100 60 100 100 100 26 22 76 100 42 71 100 100 100 100 100 100 100 100 100 90 100 100 100 97 94 100 100 100 100 100 100 100 100 100 100 100
5 27 37 100 100 28 2 5 94 88 65 100 100 52 100 100 100 98 6 99 100 86 52 97 100 100 100 69 97 100 100 100 87 78 34 67 97 100 100 100 100 100 100 100 100 100 100 100 100
0 26 72 99 69 24 6 23 27 74 100 100 98 28 100 100 100 100 61 58 100 70 18 23 79 94 99 56 96 100 100 100 100 97 11 0 4 100 100 100 100 100 100 100 100 100 100 100 100
2 50 93 100 100 97 89 7 100 100 100 100 100 60 99 100 100 100 80 100 100 100 100 5 6 3 10 12 80 100 100 100 100 100 100 22 3 5 21 100 100 100 100 100 100 100 100 100 100
5 61 100 100 96 100 100 78 100 100 100 100 100 99 84 100 100 100 81 100 100 100 100 86 10 5 0 0 1 63 100 100 100 100 100 100 100 48 85 73 84 99 100 100 100 100 100 100 100
7 100 100 100 100 100 100 100 100 100 100 100 36 64 74 99 100 100 100 100 100 100 100 100 100 30 4 0 5 6 100 100 100 100 100 100 100 100 86 56 54 44 65 50 45 40 67 100 100
97 85 100 100 100 96 100 100 100 100 100 100 100 89 91 6 100 100 100 100 100 100 100 100 100 78 5 3 14 5 38 100 100 100 38 81 100 100 100 100 92 22 21 0 0 0 5 95 36

GFSSGP_prec_cloud_090.txt.gz
Cloud_Cover
39 5 5 1 1 0 0 0 0 0 0 0 0 0 0 0 0 0 0 0 0 7 66 27 93 94 14 0 0 14 79 64 29 31 5 0 0 88 10 39 28 5 5 5 5 0 5 100 10
82 5 3 5 8 5 0 0 0 0 0 0 0 0 0 0 0 0 0 0 0 35 99 48 88 100 85 0 0 0 91 100 95 11 0 1 3 5 5 45 88 80 5 5 5 0 51 48 5
5 4 0 29 100 65 4 3 0 0 0 0 0 0 0 0 0 0 0 0 6 66 97 59 49 100 100 9 0 0 11 93 100 79 0 2 1 2 5 18 54 88 44 77 68 11 47 13 74
5 3 24 100 100 89 5 5 5 0 0 0 0 0 0 0 0 0 0 0 10 92 91 100 9 100 100 14 24 12 0 3 7 3 1 37 55 80 36 44 99 100 100 100 100 97 100 100 100
5 14 55 100 66 5 5 6 43 12 2 0 0 0 0 0 0 0 0 2 8 37 63 100 24 38 77 1 1 2 1 0 36 4 49 43 100 98 71 51 100 100 100 100 100 100 100 100 100
6 53 92 100 35 32 33 11 59 8 4 0 0 0 0 0 0 0 0 9 0 16 25 89 99 69 10 0 0 71 5 5 1 73 100 100 100 100 100 100 100 100 100 100 100 100 100 100 100
25 66 99 100 100 100 18 26 8 5 5 0 0 0 0 0 0 0 0 16 17 19 71 83 100 100 100 95 81 100 5 3 46 100 100 89 100 100 100 100 100 100 100 100 100 100 100 100 100
80 33 94 88 100 100 38 5 8 5 5 5 3 0 0 0 0 2 6 32 47 54 99 80 100 100 100 100 100 100 89 98 95 100 97 90 90 100 100 100 100 100 100 100 100 100 100 100 100
40 57 100 100 100 100 100 26 5 5 12 6 7 0 0 0 0 19 68 98 100 97 100 100 99 100 87 100 99 100 100 100 100 100 100 90 25 15 5 91 100 100 100 100 100 100 100 100 90
5 49 100 100 100 100 100 5 67 93 100 100 60 0 0 0 0 13 49 100 100 100 100 100 100 66 39 100 76 100 100 100 96 77 96 85 60 57 67 100 100 100 100 100 100 100 100 100 79
29 20 100 100 100 100 100 6 93 100 88 69 5 4 0 4 3 4 5 2 15 53 100 100 100 100 46 57 95 87 100 89 48 47 98 100 90 92 100 100 100 100 100 100 100 100 76 99 97
6 8 97 100 100 100 100 38 9 38 6 79 5 0 6 5 53 20 2 0 0 5 23 100 98 100 93 100 100 97 87 100 87 95 100 100 96 100 100 100 100 100 100 100 100 96 86 86 100
83 72 99 100 100 100 99 100 100 3 4 100 3 4 100 6 59 36 5 2 4 0 1 32 99 100 100 100 99 97 100 100 100 100 100 90 96 100 100 100 100 100 100 100 100 100 100 99 100
10 100 47 100 100 100 90 99 41 7 7 42 0 12 99 18 93 84 5 4 0 0 0 13 96 100 100 100 100 100 100 100 100 100 100 100 99 100 100 100 100 100 100 100 100 100 92 79 39
80 6 54 100 95 100 100 46 36 31 32 4 5 6 27 100 92 21 5 4 0 0 0 52 99 61 100 100 100 97 100 100 100 100 100 100 100 100 100 100 100 100 100 100 100 100 100 96 87
97 99 8 100 100 100 100 22 90 85 52 2 19 19 100 95 81 70 5 0 0 0 5 96 100 91 62 88 100 100 99 100 100 100 100 100 100 100 100 100 100 100 100 100 100 100 100 100 100
70 27 100 100 100 83 56 39 100 100 19 13 54 100 100 94 42 74 5 5 0 0 23 100 100 100 94 95 100 100 100 100 100 100 100 100 100 100 100 100 100 100 97 100 100 100 79 100 100
38 99 100 100 100 22 0 3 12 87 99 100 97 96 13 12 82 5 5 2 0 13 56 100 100 100 100 100 100 100 100 100 100 100 100 100 100 100 100 100 100 100 100 100 100 100 100 100 97
100 8 2 0 5 0 0 0 0 28 58 5 5 5 5 5 5 1 5 4 26 62 69 100 100 100 100 100 100 100 100 100 100 100 100 100 100 100 100 100 100 100 100 100 100 100 100 100 97
27 15 5 5 37 3 4 0 0 54 98 5 6 5 44 17 6 5 5 17 6 42 95 100 100 100 100 100 100 38 90 100 100 100 100 100 100 100 100 100 100 100 100 100 100 100 100 100 100
86 96 5 6 5 0 2 1 0 5 74 100 29 5 20 77 66 9 33 35 35 36 98 100 100 100 100 100 99 61 98 100 100 100 100 100 100 100 100 100 100 100 100 100 100 100 100 100 100
100 100 100 57 4 4 5 0 5 79 86 100 94 5 6 9 16 41 4 46 68 60 99 100 100 96 100 100 100 100 99 100 97 100 100 100 100 100 100 100 100 100 100 100 100 97 100 100 100
100 100 97 95 40 28 6 6 95 100 100 98 10 5 5 5 28 100 4 5 8 100 100 100 100 100 100 100 100 100 100 61 79 100 100 100 100 100 100 100 100 100 100 100 100 100 100 100 100
100 100 97 70 81 54 92 54 95 49 100 100 5 1 0 4 5 86 0 1 46 81 100 100 100 100 100 100 100 100 100 41 69 100 100 100 100 100 100 100 100 100 100 100 100 100 100 100 100
100 100 100 100 100 58 100 15 98 52 38 72 56 3 0 5 5 2 0 9 44 84 100 100 100 100 100 100 100 100 93 4 55 100 100 100 100 100 100 100 100 100 100 100 100 100 100 100 100
100 100 100 100 90 5 7 20 100 86 0 5 5 5 0 2 0 0 2 2 88 72 100 100 100 100 100 100 100 100 51 19 100 100 100 100 100 100 100 100 100 100 100 100 100 100 100 100 100
100 100 100 100 100 100 100 100 78 5 5 4 5 0 0 0 0 5 5 72 100 59 100 93 37 38 43 100 98 95 100 61 97 47 100 100 94 55 95 47 44 98 97 99 98 97 100 100 100
100 67 100 100 100 100 100 100 32 8 61 84 34 54 45 3 0 1 66 100 100 46 100 80 75 97 26 66 89 92 100 95 97 100 100 95 37 18 8 84 82 9 12 10 42 99 100 94 100
92 100 100 100 100 72 76 13 54 10 86 38 100 100 100 100 14 100 100 100 100 100 100 100 100 100 93 100 100 100 100 99 64 100 64 18 2 9 18 0 13 16 5 26 78 90 100 85 91
100 100 100 100 100 97 97 80 5 31 100 100 100 100 100 100 100 100 100 100 100 100 100 100 100 100 100 100 100 100 100 99 45 100 100 93 13 5 35 22 6 16 49 61 95 95 97 100 20

GFSSGP_prec_cloud_093.txt.gz
Cloud_Cover
77 42 41 2 5 8 0 1 0 0 0 0 0 0 0 0 0 0 0 0 0 0 0 5 1 95 57 0 29 5 25 1 8 14 4 0 0 1 18 6 9 5 50 5 0 5 5 22 7
36 92 100 28 27 75 4 0 0 2 0 0 0 0 0 0 0 0 0 0 0 0 2 2 1 73 61 0 0 100 100 86 0 2 1 4 0 28 0 12 50 82 48 5 8 5 98 61 3
75 7 52 5 34 71 4 0 5 56 5 5 0 0 0 0 0 0 0 0 0 1 40 10 69 82 97 0 0 54 100 100 28 1 6 20 5 89 98 100 96 11 100 100 99 94 66 0 0
55 12 56 5 68 5 5 1 15 100 100 22 4 0 0 0 0 0 0 0 0 37 26 81 79 100 86 0 0 0 65 82 12 0 0 0 0 1 5 85 100 100 100 99 100 100 100 98 58
67 5 4 97 100 89 2 61 100 68 78 39 10 0 0 0 0 0 0 0 0 81 70 100 31 100 100 0 2 0 0 11 71 22 1 14 9 2 14 51 100 100 100 100 100 100 100 100 100
0 5 0 49 100 57 54 99 34 7 74 60 37 2 2 0 0 0 0 0 0 7 98 100 41 97 73 0 0 0 0 0 2 21 20 82 7 100 82 100 100 100 100 100 100 100 100 100 100
5 5 1 40 100 100 100 93 8 5 86 94 26 5 2 2 0 0 0 0 0 10 40 100 100 100 56 8 1 0 0 0 0 0 19 7 89 73 100 100 100 100 100 100 100 100 100 100 100
16 5 5 99 100 100 100 99 5 5 87 100 100 43 5 5 0 0 0 10 20 34 94 100 94 100 39 16 100 26 0 0 1 7 100 100 100 100 99 91 100 100 100 100 100 100 100 100 100
19 1 62 100 100 100 47 45 7 18 75 99 85 67 55 27 4 0 58 100 100 100 100 100 100 100 100 65 82 96 91 98 46 80 100 100 77 31 97 91 100 100 100 100 100 100 100 100 100
27 8 42 100 100 100 80 5 5 77 100 100 100 100 100 100 9 2 26 87 100 100 100 100 100 83 94 100 99 100 100 100 100 100 98 100 99 21 100 100 95 100 100 100 100 100 100 100 100
5 12 100 96 100 92 100 99 5 74 99 100 100 100 100 92 5 2 0 16 39 100 100 100 100 100 72 100 100 100 100 100 100 100 100 100 86 89 44 100 49 100 100 100 100 100 100 100 100
5 5 86 100 100 68 69 94 63 100 100 65 100 100 76 5 4 0 13 100 2 93 100 100 100 100 82 48 99 100 100 100 100 100 100 99 86 100 70 90 100 100 100 100 100 100 100 100 100
5 7 5 97 71 95 100 100 100 40 100 100 34 6 3 45 6 6 99 100 0 0 25 100 100 100 100 100 100 100 100 100 100 98 100 82 90 100 94 64 100 100 100 100 100 100 100 100 100
24 50 5 23 100 40 26 100 100 96 58 5 30 58 49 8 8 91 100 100 0 0 0 26 100 100 100 100 100 100 93 100 100 99 100 67 99 99 95 63 100 100 100 100 100 100 100 100 100
100 100 100 22 9 74 31 22 5 98 33 5 5 5 5 5 75 100 100 100 0 3 1 2 94 100 100 100 100 100 100 98 100 100 98 94 100 75 94 72 100 100 100 100 100 100 100 100 81
93 34 2 51 88 67 18 7 81 48 99 100 5 9 3 0 5 88 68 100 24 5 1 0 68 100 100 100 100 100 100 94 93 100 100 100 100 100 100 100 100 100 100 100 100 100 100 100 100
100 72 12 63 100 100 100 5 5 25 66 74 5 1 1 3 11 100 99 100 72 5 2 1 80 100 100 100 100 100 100 100 99 100 62 100 100 100 100 100 100 100 100 100 100 100 100 100 100
100 100 100 93 55 45 5 0 5 52 4 5 5 2 17 44 57 100 100 100 85 2 0 4 90 100 100 100 100 100 100 100 100 100 91 100 100 100 100 100 100 100 100 100 100 100 100 100 100
100 80 86 21 5 5 46 13 5 0 5 99 5 5 1 5 100 100 100 100 22 0 0 5 95 100 100 100 100 100 100 100 100 100 100 100 100 100 100 100 100 100 100 100 100 100 100 100 100
92 5 9 90 57 5 5 32 8 0 3 5 5 2 0 3 5 10 12 16 26 2 0 57 100 100 100 100 100 96 73 100 100 100 100 100 100 100 100 100 100 100 100 100 100 100 100 48 94
100 79 64 28 48 29 20 83 5 3 2 5 21 4 3 2 42 41 5 5 5 3 0 90 100 100 100 100 99 100 94 100 99 100 100 100 99 100 100 100 100 100 100 100 100 100 100 100 100
100 100 100 96 78 100 100 100 5 5 5 5 5 0 0 0 6 90 73 5 5 4 18 100 100 100 100 100 99 97 31 100 99 100 100 100 100 100 100 100 100 100 100 100 100 100 100 100 100
100 100 100 83 72 99 72 5 63 96 100 6 20 4 0 5 5 29 60 56 4 0 42 100 100 100 100 100 100 99 87 100 68 86 100 100 100 100 100 100 100 100 100 100 100 100 100 100 100
100 100 100 90 100 67 88 80 69 86 98 35 5 5 5 5 5 14 92 63 4 4 61 99 100 100 100 100 100 76 89 100 92 98 100 100 100 100 100 100 100 100 100 100 100 100 100 100 100
100 100 100 97 95 95 95 86 100 16 5 83 100 74 78 100 100 11 8 30 5 12 99 100 98 99 100 100 100 89 93 99 72 24 100 100 100 100 100 100 100 100 100 100 100 100 100 100 100
100 100 100 100 100 22 54 26 34 4 4 5 100 100 100 100 98 92 100 100 34 13 100 100 100 100 100 100 100 100 100 67 76 63 96 100 100 100 100 100 100 100 100 100 100 100 100 100 100
100 100 100 100 10 89 100 100 100 8 10 5 100 100 99 100 23 7 5 56 29 5 91 100 100 100 100 100 100 100 100 89 67 100 100 100 100 100 100 100 100 100 100 100 100 100 100 100 100
100 100 100 95 97 100 100 99 100 100 100 100 81 13 94 100 89 64 5 5 5 20 94 100 100 100 100 100 100 100 100 100 98 62 96 100 100 100 100 100 100 100 100 100 100 100 42 46 98
100 100 100 100 100 100 100 100 100 80 25 86 95 59 100 100 100 99 11 5 40 100 100 100 100 100 100 100 100 100 82 100 100 100 73 100 100 100 88 99 100 100 100 100 100 98 37 47 100
100 100 100 99 56 86 99 100 97 11 72 12 57 95 100 100 100 100 100 94 99 100 100 100 100 100 78 71 99 97 55 100 100 97 79 94 60 55 56 71 99 100 99 93 67 15 99 100 100

GFSSGP_prec_cloud_096.txt.gz
Cloud_Cover
0 2 1 0 0 56 47 0 5 5 5 1 0 0 0 0 0 0 0 0 0 0 0 2 6 16 2 24 17 0 0 0 0 0 0 3 7 0 28 40 7 5 5 12 7 5 5 13 7
5 17 5 1 2 100 100 67 5 28 63 11 5 5 5 0 0 0 0 0 0 0 0 0 0 72 15 0 0 0 0 0 0 0 0 0 12 70 100 72 31 5 5 72 18 10 70 11 0
76 28 26 5 4 100 100 100 22 31 92 12 4 5 44 1 0 0 0 0 0 0 0 0 0 22 55 0 0 1 16 0 0 1 0 14 91 100 93 100 98 100 10 5 1 6 8 5 4
29 5 4 4 5 42 24 6 63 77 64 5 5 80 100 40 5 0 0 0 0 0 0 40 0 31 99 2 0 8 93 100 20 0 0 0 2 98 100 100 100 100 100 100 100 100 100 100 100
100 100 94 100 100 100 6 5 99 71 42 24 9 96 86 5 5 0 0 0 0 0 0 0 0 37 20 0 0 0 6 60 32 0 6 52 0 4 5 99 100 100 100 100 100 100 100 100 100
5 4 0 4 100 100 34 0 54 94 6 5 100 100 62 5 1 0 0 0 0 0 0 0 14 1 0 35 0 0 0 0 0 0 4 87 4 0 2 48 82 100 100 100 100 100 100 100 100
19 5 0 0 94 100 100 1 5 26 5 48 100 100 100 5 4 5 0 0 0 0 5 18 34 4 13 50 0 0 0 0 0 0 14 49 3 47 70 91 90 100 100 100 100 100 100 100 100
0 5 0 2 100 100 100 4 5 1 5 53 100 100 92 6 6 5 0 0 0 0 3 58 67 42 46 64 44 1 0 0 0 0 0 64 100 100 18 100 100 100 100 100 100 100 100 100 100
0 0 3 100 100 100 67 0 3 5 8 100 100 100 100 73 5 5 5 0 0 2 2 98 94 63 41 98 36 100 19 6 2 0 1 59 100 100 100 56 100 100 41 100 100 100 100 100 100
0 0 2 100 100 95 5 0 5 5 12 61 100 100 100 100 78 96 93 5 5 6 56 99 100 26 19 40 51 58 49 100 87 14 18 3 29 24 75 12 78 100 81 100 100 100 100 100 100
5 5 5 5 100 8 3 5 2 5 6 94 100 100 100 100 100 100 100 55 5 0 34 100 100 78 50 59 89 76 52 91 100 100 55 64 74 50 68 88 74 100 27 72 100 100 100 100 100
11 28 5 96 60 3 30 5 0 5 50 100 100 58 96 100 100 100 100 50 5 5 3 99 100 100 35 32 93 98 85 100 100 100 100 91 60 61 68 92 83 100 100 100 100 100 100 100 100
0 18 5 38 92 5 13 100 12 0 6 99 100 100 100 100 100 100 100 23 8 5 0 50 100 100 15 28 61 100 100 78 100 100 100 100 100 97 83 95 99 100 99 100 100 100 100 100 100
0 0 9 14 44 10 5 28 36 13 68 7 14 57 100 100 100 100 94 5 10 5 0 11 100 100 73 29 63 98 100 60 100 100 100 100 100 99 68 57 85 94 100 100 100 100 100 100 100
3 3 0 6 81 59 61 4 5 91 85 5 5 92 45 81 99 89 31 5 5 5 5 0 70 100 100 82 76 64 100 60 75 73 100 100 100 94 98 98 91 92 100 100 100 100 100 100 100
8 5 5 11 5 34 7 22 22 20 80 5 3 4 5 5 18 83 94 21 24 23 1 0 2 100 100 97 86 68 100 98 87 85 81 90 100 93 86 99 100 100 100 100 100 100 100 100 100
74 5 5 5 35 100 100 100 100 0 0 1 0 0 3 14 5 6 97 87 22 22 1 5 15 67 100 98 89 94 100 100 99 67 74 100 100 96 100 100 100 100 100 100 100 100 100 100 100
56 63 92 81 100 100 100 100 90 84 4 4 5 4 2 41 94 52 5 99 66 34 5 5 5 42 100 100 100 100 100 100 100 100 86 100 100 100 100 100 100 100 100 100 100 100 100 100 100
100 100 100 100 100 100 100 100 5 66 98 72 100 5 5 5 15 0 0 5 100 100 100 100 76 84 100 100 100 100 100 100 100 46 40 100 100 100 100 100 100 100 100 100 100 100 100 100 100
100 100 100 100 30 100 100 100 100 12 87 95 29 66 5 2 0 1 2 5 8 5 87 100 9 100 100 46 17 60 87 100 90 80 41 100 100 100 100 100 100 100 100 100 100 100 100 100 100
100 99 100 100 100 100 100 100 100 98 7 96 12 5 5 5 4 2 0 0 2 5 8 2 5 100 100 8 26 63 100 100 100 75 96 100 100 100 100 100 100 100 100 100 100 100 100 100 100
100 100 100 100 100 100 100 100 100 100 90 8 5 5 5 5 0 4 5 0 1 24 99 5 7 100 100 57 22 4 9 39 56 38 97 100 100 100 100 100 100 100 100 100 100 100 100 100 100
100 100 100 100 100 99 100 100 100 100 46 83 70 49 40 7 5 5 5 4 0 2 5 5 54 100 100 100 6 4 4 5 77 49 98 100 100 100 100 100 100 100 100 100 100 100 100 100 100
100 100 100 100 100 100 100 100 100 68 100 67 6 58 100 100 97 5 5 5 5 5 5 5 100 100 100 96 28 5 0 30 87 53 88 100 100 100 100 100 100 100 100 100 100 100 100 100 100
100 100 100 100 100 100 100 100 100 95 93 99 62 33 98 98 5 31 19 5 8 5 5 62 100 100 100 100 59 25 5 58 78 49 94 100 100 100 100 100 100 100 100 100 100 100 100 100 100
100 100 100 100 100 100 100 100 100 78 5 63 100 98 56 54 14 60 48 14 5 5 5 94 100 100 100 100 84 34 6 60 80 100 42 100 100 100 100 100 100 100 100 100 100 100 100 100 100
100 100 100 100 100 100 100 100 100 69 23 11 87 98 58 28 41 52 63 6 39 100 100 100 100 85 100 100 100 77 46 50 100 93 100 100 94 100 100 100 100 100 100 100 100 100 100 100 100
100 100 100 100 100 100 100 100 100 100 94 82 100 100 100 67 92 32 100 67 100 100 100 100 100 100 100 100 100 94 58 96 100 100 60 52 99 97 100 100 100 100 100 100 100 100 100 100 100
100 100 100 100 100 100 100 100 100 100 9 20 99 100 100 38 55 90 100 100 100 100 100 100 100 100 100 100 100 100 100 100 100 100 66 98 98 100 99 100 100 100 100 100 100 100 100 100 100
100 100 100 100 100 100 100 91 63 11 5 34 77 100 85 96 78 93 100 100 100 100 100 100 100 100 100 100 100 100 73 100 100 100 100 100 89 100 100 96 100 100 90 100 100 100 100 100 59

GFSSGP_prec_cloud_099.txt.gz
Cloud_Cover
0 5 7 0 0 0 0 1 0 4 5 8 5 1 3 2 0 3 0 0 0 0 0 0 0 0 0 10 0 0 0 0 0 0 0 0 0 7 5 6 0 0 3 14 5 5 10 0 10
2 5 6 5 0 1 29 66 0 1 35 56 15 23 7 7 2 0 0 0 0 0 0 0 0 0 0 3 0 0 0 0 0 0 0 0 0 0 0 93 64 55 4 4 3 72 10 16 0
0 0 4 4 6 16 100 56 3 1 35 100 100 100 100 100 5 0 0 4 1 0 0 0 0 0 0 0 0 0 0 0 0 0 0 0 1 69 100 100 98 100 3 5 30 20 25 60 5
0 0 2 3 5 100 100 89 4 0 7 100 100 100 100 39 5 0 0 52 81 5 0 40 0 0 0 0 0 0 0 0 0 0 0 0 5 22 100 100 100 100 100 100 100 100 100 100 100
0 0 0 0 14 100 97 29 0 0 0 13 87 100 87 9 5 4 3 25 31 6 0 0 0 0 0 0 0 0 0 41 36 1 0 0 2 4 5 84 100 100 100 100 100 100 100 100 100
0 0 0 0 100 100 100 100 100 53 3 5 98 100 100 45 8 5 31 15 5 5 0 0 0 0 0 0 0 0 0 0 0 0 0 0 0 4 5 4 79 100 100 100 100 100 100 100 100
0 0 0 0 2 29 96 21 0 20 60 11 4 100 100 8 5 16 93 25 5 4 0 0 0 0 2 0 0 0 0 0 0 0 0 0 0 1 5 4 57 100 100 100 100 100 100 100 100
0 0 0 0 9 98 87 1 0 0 0 0 88 100 97 48 7 91 100 15 11 5 5 0 0 0 11 8 7 0 0 0 0 0 1 0 3 5 46 64 15 56 100 100 100 100 100 100 100
3 0 0 9 2 44 37 3 0 0 0 2 100 100 100 96 7 100 100 26 5 5 5 5 0 0 5 40 26 35 9 0 8 4 3 33 0 10 100 100 65 32 88 100 100 100 100 100 100
4 2 4 24 13 0 20 1 0 0 0 0 24 100 100 100 100 100 100 10 5 68 69 81 5 0 2 24 59 47 3 9 3 0 0 0 2 8 99 100 96 12 69 90 100 100 100 100 100
2 0 5 49 17 5 15 0 0 0 0 0 92 94 100 100 100 100 90 6 12 100 100 100 21 0 1 7 54 85 28 100 54 70 40 19 22 1 6 100 100 34 66 74 77 100 100 100 100
1 0 0 18 17 5 8 0 0 0 1 0 16 100 100 100 100 100 100 26 100 100 100 100 7 2 0 3 12 72 77 73 75 71 61 20 8 14 14 95 70 15 24 100 62 100 100 100 100
0 0 0 0 25 41 81 1 0 0 0 1 2 16 92 100 100 100 83 84 100 100 100 100 73 75 1 6 13 100 98 94 57 51 76 35 68 24 5 76 99 87 44 100 99 86 100 100 100
8 4 2 0 1 16 91 5 5 5 0 33 5 3 9 100 100 100 100 100 100 100 100 53 23 99 4 0 12 97 94 54 65 81 99 86 93 22 42 84 52 64 39 100 100 100 100 100 100
5 6 4 0 4 7 100 43 5 35 34 0 5 5 0 9 43 100 100 100 100 100 100 25 28 100 25 0 4 46 20 6 100 71 89 36 99 79 100 78 33 44 13 71 100 100 100 100 100
5 41 4 5 5 16 99 11 35 5 6 14 0 1 5 5 7 64 100 100 100 100 92 5 6 96 100 0 0 2 32 8 24 100 89 70 93 33 98 23 100 100 53 78 98 100 100 100 100
94 9 3 8 12 32 100 58 100 96 5 4 4 0 0 5 33 23 76 100 99 5 0 0 0 36 100 93 18 9 26 60 26 49 88 64 78 39 97 54 98 97 70 91 67 100 100 100 100
11 92 97 100 100 100 51 100 100 86 5 3 0 0 2 5 22 5 5 16 7 4 2 1 0 12 87 100 100 100 100 100 95 38 43 67 74 73 79 91 99 92 96 85 95 100 100 100 100
100 100 100 100 100 100 100 100 100 100 29 5 6 5 100 100 18 5 5 48 68 89 5 1 4 47 100 100 100 100 100 100 97 21 42 42 15 33 77 86 100 100 100 96 100 100 100 100 100
100 100 100 100 100 100 100 100 100 100 68 20 55 100 100 100 5 8 64 99 21 100 18 5 3 5 62 100 97 53 75 100 44 8 48 68 47 46 52 81 100 100 100 100 100 100 100 100 100
100 100 100 100 100 100 100 100 100 100 100 100 100 100 89 5 5 39 27 10 55 100 100 19 5 5 30 89 48 31 72 100 99 9 94 48 51 90 100 100 100 100 100 100 100 100 100 100 100
100 100 100 100 100 100 100 100 100 100 100 100 100 100 100 98 6 5 5 5 8 37 80 95 5 0 22 36 37 20 10 36 28 26 34 38 91 99 100 100 100 100 100 100 100 100 100 100 100
100 100 100 100 100 100 100 96 100 100 100 100 100 100 100 100 94 5 5 5 47 24 54 58 5 5 23 5 8 45 21 1 0 0 11 74 100 100 100 100 100 100 100 100 100 100 100 100 100
100 100 100 100 100 94 90 98 100 100 100 100 100 100 100 100 100 100 100 64 52 63 8 93 91 80 57 0 14 31 28 5 0 0 20 100 100 100 100 100 100 100 100 100 100 100 100 100 100
100 100 100 100 100 100 100 100 100 100 100 100 100 100 100 100 100 100 89 100 100 100 100 100 72 58 95 79 26 59 33 3 0 2 87 72 100 100 100 100 100 100 100 100 100 100 100 100 100
100 99 100 100 100 100 100 100 100 100 100 100 100 100 100 100 100 94 100 100 100 100 100 100 99 99 100 100 60 95 46 3 0 3 56 70 100 100 100 100 100 100 100 100 100 100 100 100 100
100 100 100 100 100 100 100 100 100 100 100 100 100 100 100 100 100 100 100 100 100 100 57 100 93 100 100 100 100 99 58 3 5 8 49 9 85 100 100 100 100 100 100 100 100 100 100 100 100
100 100 100 100 100 100 100 100 100 100 100 100 100 96 100 100 100 99 100 92 96 100 50 64 79 60 100 100 100 100 73 7 5 5 86 40 82 100 100 100 100 100 100 100 100 100 100 100 100
100 100 100 100 100 100 100 100 100 100 100 95 100 82 88 89 87 99 100 100 91 96 90 64 100 100 100 100 100 100 100 33 5 61 100 100 100 100 100 100 100 100 100 100 100 100 100 100 100
100 100 100 100 100 100 100 100 100 100 100 100 100 94 100 100 100 93 98 100 100 100 100 100 100 100 100 100 100 100 100 90 53 100 83 100 100 96 100 100 100 100 100 100 100 100 100 100 100

GFSSGP_prec_cloud_105.txt.gz
Cloud_Cover
0 1 0 0 0 0 0 0 0 4 2 0 0 0 0 0 0 0 0 0 0 0 0 0 0 0 0 0 0 0 0 0 0 0 0 0 0 0 0 0 0 0 0 8 36 14 6 12 2
3 0 2 0 0 0 0 2 0 0 0 0 0 2 27 0 0 0 0 1 5 4 1 1 2 5 0 0 0 0 0 0 0 0 0 0 0 0 0 0 0 0 1 99 100 100 100 99 77
2 0 0 0 0 0 0 0 0 0 0 0 0 92 80 1 0 3 2 3 5 32 100 94 5 5 0 0 0 0 0 0 0 0 0 0 0 0 0 3 5 100 100 100 100 100 100 100 100
0 0 0 0 0 0 0 0 0 0 0 0 0 58 100 76 0 5 5 5 12 58 100 100 42 5 0 0 0 0 0 0 0 0 0 0 0 0 0 12 5 91 100 94 100 100 100 100 100
0 0 0 0 0 0 0 0 0 0 0 0 0 28 91 91 16 5 5 42 72 80 100 100 100 16 1 0 2 0 0 0 0 0 0 0 0 0 0 5 43 96 100 100 100 100 99 100 100
0 0 0 0 0 0 0 0 0 0 0 0 0 0 93 3 1 0 1 13 100 66 100 91 32 5 0 0 2 4 0 0 0 0 0 0 0 0 0 0 3 74 100 100 100 96 100 100 100
6 0 0 0 0 0 0 0 0 0 0 0 0 0 47 24 55 79 100 99 100 100 15 100 100 100 8 0 21 10 0 0 0 0 0 0 0 0 0 0 0 13 100 100 100 100 100 100 100
100 30 2 0 0 0 4 2 0 0 0 0 0 0 0 19 1 53 100 98 91 21 5 86 100 98 11 26 5 0 0 0 0 0 0 0 0 0 0 0 3 5 100 100 100 100 100 100 100
91 99 94 100 48 42 13 5 5 0 0 0 0 0 0 0 0 0 60 3 58 98 50 17 99 82 20 10 5 95 1 0 0 0 0 0 0 0 0 0 15 5 5 28 100 100 100 100 100
5 1 45 60 100 66 100 77 5 4 0 0 0 0 0 0 0 0 0 0 12 100 47 43 93 5 14 75 94 59 44 91 2 0 0 0 0 0 0 0 1 5 14 0 7 99 100 100 100
29 2 2 1 5 6 7 79 77 22 0 0 0 0 0 0 0 0 0 0 15 63 100 100 100 100 100 100 45 38 58 74 5 2 0 9 2 1 10 11 34 41 35 1 7 92 100 100 100
1 4 4 5 0 2 5 4 100 9 3 0 0 0 0 0 5 0 0 0 5 5 78 87 100 100 100 100 100 100 100 33 8 71 21 5 1 4 5 29 91 36 25 24 28 39 100 100 100
0 2 0 0 0 0 0 0 5 74 5 1 0 1 0 0 27 91 5 0 0 19 64 82 100 100 100 100 100 80 81 9 19 7 5 3 0 0 0 5 100 69 90 26 30 30 68 88 100
3 0 0 0 0 0 0 0 4 2 9 0 2 3 0 0 36 100 3 0 0 2 97 100 100 100 100 100 100 100 100 97 6 5 2 0 0 0 0 0 13 100 76 6 5 97 100 97 95
0 0 0 0 0 0 1 1 5 1 100 7 0 0 3 0 6 100 19 0 0 0 91 100 84 100 100 100 100 100 100 100 24 0 97 0 0 0 0 0 2 3 12 9 5 71 100 100 99
0 0 0 0 0 0 26 12 0 8 81 94 5 1 63 63 7 62 100 4 0 0 5 86 96 6 95 100 100 100 60 5 5 0 3 69 1 6 100 4 0 0 22 1 17 58 100 79 99
0 0 0 0 0 0 1 0 0 0 83 97 75 8 2 4 19 8 100 87 5 1 0 22 100 94 4 5 5 5 2 1 5 0 0 0 21 2 0 0 0 0 14 32 75 100 96 79 80
0 0 0 0 0 0 0 1 0 0 0 59 100 48 2 0 5 67 84 100 60 17 0 0 60 100 26 5 5 15 5 5 5 1 0 0 1 0 15 14 11 10 13 46 96 79 69 92 76
0 5 6 0 0 2 100 64 5 48 96 5 100 100 46 1 5 100 100 100 100 67 0 0 5 87 62 5 11 32 5 5 1 0 0 0 0 0 10 16 11 7 6 44 41 88 54 100 75
13 0 3 6 23 74 12 9 0 3 1 0 100 100 100 31 35 81 100 99 100 77 0 0 21 100 99 5 5 6 83 47 99 4 21 15 0 0 16 22 26 25 40 40 77 49 99 94 70
36 0 0 0 96 80 52 1 0 0 1 1 85 100 100 100 100 100 66 82 88 100 48 2 3 11 90 100 9 5 19 30 100 94 15 22 30 4 0 0 16 47 63 89 100 74 100 100 100
12 0 0 0 97 56 81 27 0 0 4 4 99 100 100 100 100 79 5 5 5 98 98 72 18 10 94 100 100 67 5 5 24 100 100 100 6 1 0 21 20 50 95 100 72 100 100 100 100
9 6 44 28 47 58 99 100 6 11 18 9 60 100 100 100 99 33 5 5 8 100 100 100 100 100 100 100 100 89 5 5 9 92 67 81 44 93 35 38 99 49 100 100 89 100 100 100 100
83 68 96 83 68 93 89 100 100 86 100 100 100 100 100 86 48 10 50 91 100 100 100 100 100 100 90 100 100 88 6 53 34 5 5 94 46 93 84 100 100 100 100 100 100 100 100 100 100
100 98 100 100 100 36 0 98 100 100 100 100 100 100 93 67 5 20 100 100 100 100 100 100 100 100 100 100 100 100 90 100 67 5 19 89 48 89 100 100 100 100 100 100 100 100 100 100 100
0 23 43 100 30 4 5 100 100 100 100 100 100 100 100 99 62 55 80 100 100 100 100 100 100 100 90 100 100 100 100 100 64 59 50 31 80 93 100 98 100 100 96 100 100 100 100 100 100
10 5 5 4 41 14 1 93 100 100 92 100 62 68 28 100 88 29 58 100 73 100 100 100 100 100 92 100 100 100 100 85 100 100 58 42 80 91 26 100 100 96 100 100 100 100 100 100 100
9 15 2 34 100 55 20 99 100 100 100 100 100 97 87 80 100 100 100 87 90 100 100 100 100 100 83 100 100 100 100 83 100 100 100 85 5 8 100 100 100 100 100 100 100 100 100 100 100
5 90 100 100 100 100 100 100 100 100 100 100 100 100 99 86 96 96 100 92 100 100 100 100 100 100 100 100 100 100 100 79 99 100 100 69 18 38 99 100 100 100 100 100 100 100 100 100 100
100 100 100 100 100 100 100 100 100 100 100 100 100 100 85 100 100 100 100 100 100 100 100 100 100 100 100 100 99 100 100 99 97 100 100 82 12 72 100 100 100 100 95 100 100 100 100 100 100

GFSSGP_prec_cloud_108.txt.gz
Cloud_Cover
0 0 0 0 0 0 0 0 0 0 0 0 0 0 0 0 0 0 0 0 0 7 24 0 0 0 0 0 0 0 0 0 0 0 0 0 0 0 0 0 0 0 0 18 97 100 100 100 100
0 0 0 0 0 0 0 0 0 0 0 0 0 0 0 0 0 0 0 0 0 5 28 22 2 2 4 5 2 5 0 1 0 0 0 0 0 0 0 0 0 0 43 100 100 100 100 100 100
0 0 0 0 0 0 0 0 0 0 0 0 0 0 0 0 0 0 0 0 0 0 5 13 7 5 68 27 5 5 5 2 0 0 0 0 0 0 0 0 0 0 7 41 97 100 100 100 100
0 0 0 0 0 0 0 0 0 0 0 0 0 0 0 0 0 0 3 2 5 16 5 74 80 5 100 100 91 14 12 0 0 0 0 0 0 0 0 0 0 0 6 91 99 100 100 100 100
1 1 0 0 0 0 0 0 0 0 0 0 0 0 0 0 0 0 5 32 97 59 98 34 11 87 100 100 56 23 6 0 0 1 0 0 0 0 0 0 0 0 3 93 96 100 95 100 100
100 4 8 3 0 0 0 0 0 0 0 0 0 0 0 0 0 0 16 77 93 53 26 5 76 9 37 56 54 5 2 0 43 2 0 0 0 0 0 0 0 2 5 20 97 100 97 100 100
100 90 24 1 0 4 83 26 3 0 0 0 0 0 0 0 0 0 2 70 100 59 57 17 15 5 25 100 100 6 5 2 1 0 0 0 0 0 0 0 0 0 0 57 96 100 100 100 99
99 97 100 100 100 100 100 100 89 2 0 0 0 0 0 0 0 0 0 3 44 37 99 30 28 70 25 10 96 84 2 0 8 38 0 0 0 1 0 0 0 0 3 5 45 100 100 100 100
100 41 26 100 100 100 96 100 100 100 40 2 0 0 0 0 0 0 0 14 6 3 5 20 30 100 53 27 9 4 2 0 68 56 4 5 6 5 2 5 0 2 1 0 5 86 100 100 100
16 14 65 18 69 98 81 31 100 84 50 35 2 0 0 0 0 0 0 36 16 13 22 10 13 100 62 36 91 57 97 100 96 22 29 52 59 40 64 2 0 0 0 1 2 42 95 100 100
5 4 34 2 4 5 33 16 56 13 3 4 5 1 1 0 0 0 0 64 32 0 0 7 2 95 100 100 100 100 100 43 75 49 53 100 88 67 58 62 48 21 6 44 18 29 24 10 100
1 0 44 100 5 0 4 5 5 15 4 0 0 0 0 0 0 0 0 2 86 0 0 0 0 4 100 100 100 100 100 99 91 84 84 95 100 69 83 98 100 58 46 28 26 29 20 38 7
5 1 0 0 0 0 2 0 2 4 5 4 1 0 0 0 0 0 4 0 100 8 4 1 0 1 76 100 100 98 96 86 40 15 6 81 100 100 58 67 94 82 36 11 35 33 32 23 49
1 2 5 0 0 0 0 0 0 0 1 17 98 2 0 0 0 5 0 0 35 93 4 0 2 5 96 100 99 85 93 100 100 92 100 100 100 41 22 51 53 54 34 12 9 19 40 32 97
0 0 0 0 1 0 0 0 0 4 0 5 87 5 0 0 0 5 5 3 0 5 4 0 0 2 95 100 100 100 87 100 100 100 100 100 74 1 1 23 40 14 20 98 38 35 63 53 99
0 0 0 0 0 0 0 0 0 9 13 0 100 58 5 1 0 8 5 37 0 0 5 1 0 0 73 100 100 100 96 96 85 60 27 67 0 0 1 12 16 24 26 27 33 69 100 99 93
0 0 0 0 0 0 0 0 0 7 9 0 71 100 39 5 3 90 3 11 4 0 4 4 0 0 2 100 100 100 57 42 5 5 4 94 35 0 3 7 0 0 6 13 42 91 87 100 100
0 0 0 0 0 0 0 0 0 0 1 0 1 100 100 8 1 49 50 27 81 21 0 5 2 0 0 3 79 100 14 8 7 5 6 5 21 27 1 14 3 2 19 60 95 95 100 100 100
100 70 27 0 0 0 0 0 0 0 0 0 0 0 92 38 5 93 100 72 100 87 1 4 5 5 4 42 45 11 64 9 36 26 5 17 23 33 34 9 7 15 27 78 100 100 100 100 100
0 94 75 1 0 7 0 0 0 2 0 0 0 0 1 89 100 100 100 100 58 94 1 0 8 33 38 1 13 14 8 15 8 44 27 13 26 28 45 41 39 46 49 81 100 100 100 100 100
0 31 100 18 0 63 90 9 0 1 76 0 0 0 0 28 100 100 100 29 15 72 32 0 55 72 91 100 49 12 61 100 100 98 53 70 36 37 39 58 51 49 76 74 100 100 100 100 100
0 2 77 90 4 43 93 19 5 1 0 0 0 0 99 39 100 48 29 46 55 29 91 5 57 100 100 100 74 16 14 100 100 100 100 12 59 45 50 51 56 56 94 100 100 100 100 99 100
100 100 75 70 0 98 54 99 0 98 2 37 58 99 100 78 58 77 5 16 13 53 100 84 100 100 100 100 100 100 28 61 100 100 100 69 99 99 100 97 36 56 84 78 99 100 100 100 74
84 29 78 24 0 41 0 25 99 90 21 16 14 96 100 82 92 5 53 98 84 94 100 100 100 100 100 100 94 100 100 100 100 100 100 61 93 72 62 100 93 52 98 100 100 100 100 100 100
5 96 78 70 50 6 95 55 48 24 98 71 41 5 5 61 23 5 5 42 100 100 64 100 100 93 100 100 100 100 100 100 100 100 100 60 68 100 100 100 100 96 100 100 92 100 100 100 100
65 55 94 100 92 100 100 36 83 100 100 100 89 99 63 99 84 34 10 100 100 100 100 100 91 100 100 100 100 100 100 54 53 5 100 100 99 100 95 100 100 100 100 100 100 100 100 100 100
13 92 100 100 100 96 71 100 100 100 100 100 100 100 100 100 100 100 100 100 100 100 100 50 56 100 100 100 100 100 100 94 7 5 100 100 100 100 100 100 100 100 100 100 100 100 100 100 100
56 92 100 100 81 100 100 100 100 100 100 100 100 100 100 100 100 100 100 100 100 100 63 68 52 100 100 100 53 100 100 99 100 73 100 100 100 100 100 100 99 75 100 94 97 100 100 100 100
92 100 100 100 100 100 100 100 100 100 100 100 100 100 100 100 100 100 100 100 100 100 97 96 71 100 100 100 100 100 100 100 100 100 100 100 100 100 100 100 64 100 100 100 100 100 100 100 100
100 100 100 100 100 100 100 100 100 100 100 100 100 100 100 100 100 100 100 100 100 100 100 100 100 100 100 100 100 100 100 100 100 100 100 100 100 100 100 100 74 100 100 100 100 100 100 100 100

GFSSGP_prec_cloud_111.txt.gz
Cloud_Cover
0 0 0 0 0 0 0 0 0 0 0 0 0 0 0 0 0 0 0 0 0 0 10 3 0 0 0 0 0 0 0 0 0 0 0 0 0 0 2 0 0 0 0 0 2 98 99 90 100
0 0 0 0 0 0 0 0 0 0 0 0 0 0 0 0 0 0 0 0 0 0 12 23 0 1 1 0 0 1 5 4 1 0 0 0 0 0 0 0 0 0 0 0 0 73 100 100 99
0 0 0 0 0 0 0 0 0 0 0 0 0 0 0 0 0 0 0 0 0 1 15 16 39 5 5 2 0 5 42 50 4 0 0 0 0 0 0 0 0 0 0 0 0 10 100 100 100
0 2 8 0 0 0 0 0 0 0 0 0 0 0 0 0 0 0 0 0 0 25 18 60 26 6 5 4 3 17 78 82 5 5 0 0 0 0 0 0 0 0 0 0 0 4 79 100 100
89 66 32 94 94 84 100 47 1 0 0 0 0 0 0 0 0 0 0 0 0 5 28 54 100 63 54 20 23 100 99 85 5 5 0 5 1 0 0 0 0 0 0 0 1 5 6 100 100
52 21 0 4 92 100 100 64 100 80 2 2 0 0 0 0 0 0 0 0 0 11 35 42 52 11 5 16 33 35 44 33 5 1 0 0 0 0 0 0 0 0 0 0 2 5 3 100 100
5 1 0 0 1 34 26 100 100 100 88 8 0 4 2 0 0 0 0 0 0 13 48 68 56 31 5 5 9 30 26 100 52 0 0 0 5 0 0 0 0 0 0 0 1 0 0 95 100
100 32 4 4 5 56 100 100 67 65 98 5 5 0 2 3 0 0 0 5 6 33 68 81 61 45 52 64 10 14 27 10 98 4 0 8 5 0 0 5 5 5 0 0 0 5 3 5 100
67 6 12 91 100 100 95 100 100 37 1 3 2 1 0 0 4 12 16 32 30 40 47 61 62 50 42 44 45 72 19 23 8 5 0 54 24 30 5 5 14 6 0 0 0 2 5 4 100
100 100 100 100 100 90 21 66 100 100 100 93 5 0 0 0 5 33 2 0 5 40 65 54 58 58 50 55 41 42 37 30 31 84 94 32 19 51 29 98 21 5 1 0 0 0 4 4 36
5 8 66 98 93 81 69 8 37 25 5 5 1 5 1 0 0 2 5 3 0 0 17 46 45 46 50 58 90 99 100 100 94 26 70 69 22 36 62 94 36 21 2 10 25 12 8 2 23
100 67 36 100 93 33 5 5 5 40 88 7 4 0 0 0 0 0 18 10 20 3 0 10 20 38 41 45 100 91 100 100 65 33 73 42 47 52 92 100 100 90 49 65 44 36 20 0 0
99 96 91 20 40 2 0 0 0 1 62 9 1 0 0 0 0 0 0 4 5 10 1 0 6 18 35 38 72 68 87 98 100 100 77 35 67 59 100 100 100 100 98 48 47 31 28 10 1
24 1 5 5 45 6 4 2 0 1 55 5 3 4 0 0 0 0 2 24 31 40 5 3 8 3 25 40 36 52 100 100 100 100 100 100 92 100 100 100 100 100 78 37 29 26 25 27 24
2 0 0 4 3 4 3 0 0 4 0 0 0 6 39 0 0 0 0 9 21 43 33 10 9 13 22 48 31 50 100 90 99 100 100 100 100 100 90 100 100 100 72 29 31 34 54 47 37
0 0 0 0 0 0 0 0 0 0 1 4 5 0 82 7 0 0 0 0 17 22 6 5 4 27 23 41 42 29 91 95 67 33 92 100 100 54 54 82 98 74 71 38 47 40 65 98 97
0 0 0 0 0 0 0 0 0 0 0 0 0 0 9 94 5 0 0 0 1 85 97 14 5 37 30 41 42 34 58 95 87 33 69 88 47 16 19 43 50 63 76 86 80 81 23 99 100
5 5 5 4 0 0 0 0 0 0 0 0 0 0 0 94 5 1 1 0 1 27 97 100 5 91 12 62 65 75 89 98 31 34 30 98 24 30 24 32 34 55 74 91 90 81 100 80 100
5 5 0 0 0 12 5 4 0 0 0 0 0 0 0 89 44 76 80 17 5 20 12 100 5 50 32 91 94 99 80 84 68 26 14 5 8 33 41 46 32 52 70 85 78 83 96 100 100
0 0 0 0 0 98 44 60 0 0 0 0 0 0 0 0 100 100 30 5 3 0 0 10 34 17 45 27 6 5 45 93 83 72 90 5 18 25 42 44 54 56 83 81 99 94 100 100 100
0 7 30 68 1 33 100 100 0 0 0 0 0 0 0 0 50 100 90 6 4 0 3 14 99 47 100 100 88 26 72 79 99 98 72 45 35 73 58 46 85 74 87 100 100 100 100 100 100
5 97 34 5 88 93 100 76 0 1 1 0 23 72 0 0 0 90 100 18 5 0 56 96 99 99 100 100 100 82 92 77 33 51 100 83 90 61 97 99 66 97 100 100 100 100 100 100 100
3 5 41 96 100 95 90 86 16 100 10 0 24 92 71 0 0 0 4 88 4 0 15 100 100 100 100 100 100 100 100 100 100 100 71 100 100 75 94 100 100 100 100 94 95 100 100 100 100
38 5 57 30 98 98 0 4 95 94 82 100 95 63 25 10 2 8 5 5 0 0 0 58 100 100 100 100 100 100 100 99 100 100 100 100 100 100 96 100 100 100 100 100 100 89 100 100 100
3 75 93 100 98 29 1 68 100 75 100 100 100 100 100 100 94 81 89 67 30 29 30 10 100 100 100 100 100 100 100 87 100 95 70 100 100 100 100 79 100 100 100 100 99 100 100 100 100
100 100 100 100 100 100 98 97 99 100 100 100 100 100 100 100 100 100 100 100 100 100 97 76 76 100 100 100 100 100 100 100 100 100 80 95 100 100 100 97 58 70 100 100 100 100 100 99 96
81 100 100 100 100 100 100 100 100 100 100 100 100 100 100 100 100 100 100 100 100 100 100 100 91 100 100 100 100 100 100 100 100 100 100 100 100 100 100 100 97 87 100 100 100 100 100 100 100
100 89 100 100 100 100 100 100 100 100 100 100 100 100 100 100 100 100 100 100 100 100 100 100 100 100 100 100 100 100 100 100 100 100 100 95 67 100 100 100 70 99 100 100 100 100 100 100 100
66 43 93 73 99 100 100 100 100 100 100 100 100 100 100 100 100 100 100 100 100 100 100 100 100 100 100 100 100 100 100 100 100 97 100 85 100 100 100 100 100 100 100 100 100 100 100 100 100
100 100 100 100 100 100 100 100 100 100 100 100 100 100 100 100 100 100 100 100 100 100 100 100 100 100 100 100 100 100 100 100 100 100 100 100 98 97 100 100 100 100 88 100 100 100 100 100 100

GFSSGP_prec_cloud_114.txt.gz
Cloud_Cover
0 0 0 0 0 0 0 0 0 0 0 0 0 0 0 0 0 0 0 0 0 0 4 0 1 19 1 0 0 0 0 0 0 0 0 0 0 0 0 0 0 0 0 0 0 0 0 1 91
0 0 0 0 0 0 4 1 0 0 0 0 0 0 0 0 0 0 0 0 0 0 2 8 0 16 5 0 0 0 0 0 0 2 5 0 0 0 0 0 0 0 0 0 0 0 0 1 5
0 0 0 0 0 0 0 0 0 0 0 0 0 0 0 0 0 0 0 0 0 0 0 12 0 7 7 0 0 0 0 0 4 51 9 4 10 0 0 0 0 0 0 0 0 0 1 2 8
0 0 0 0 0 0 0 0 0 0 0 0 0 0 0 0 0 0 0 0 0 3 15 18 1 1 7 11 10 0 0 0 5 100 54 33 4 0 0 0 0 0 0 0 0 0 2 4 50
5 28 4 0 22 100 100 100 34 29 11 4 5 58 1 0 0 0 0 0 0 39 38 59 11 8 2 16 24 8 0 0 46 100 100 32 4 6 0 0 0 0 0 0 0 0 1 5 20
5 2 39 28 100 100 95 58 95 100 100 93 10 2 2 0 0 0 0 0 0 35 65 48 22 13 15 25 30 17 0 0 23 52 58 5 2 0 0 0 0 0 0 0 0 0 1 1 1
38 91 85 5 14 45 100 92 30 36 7 6 0 0 2 2 0 0 3 1 14 36 82 85 65 33 24 33 84 29 1 0 0 10 100 5 1 0 0 0 0 0 0 0 0 0 0 0 0
26 17 37 32 50 100 100 100 66 4 3 5 0 0 0 0 5 5 8 16 40 79 75 100 100 63 50 73 44 87 13 8 5 1 3 5 0 0 0 0 0 0 0 5 3 0 0 0 0
30 6 79 71 89 65 80 39 18 24 12 68 37 5 0 0 0 7 18 55 89 98 100 100 100 100 66 71 72 50 28 73 100 31 0 17 25 2 14 10 4 2 6 17 2 0 0 0 0
12 6 44 100 100 90 52 90 100 100 100 100 98 8 2 0 4 0 0 5 48 61 100 100 100 100 86 73 92 99 100 94 92 26 13 33 60 88 5 5 5 5 18 23 5 0 1 19 37
5 5 5 57 28 94 96 38 100 100 100 100 100 100 13 0 0 0 0 0 9 99 99 100 100 100 100 100 100 100 100 100 99 100 100 100 99 74 18 28 28 23 46 60 12 1 17 16 49
69 58 31 67 100 98 94 100 93 90 100 100 45 99 15 0 0 0 0 0 0 1 75 92 100 100 100 100 100 100 100 95 100 83 100 100 100 100 69 25 42 39 100 26 34 30 12 6 20
99 100 100 100 100 100 100 97 24 97 100 100 99 59 50 0 0 0 0 0 0 0 5 41 64 88 99 100 100 100 100 74 62 68 92 99 100 100 100 74 77 100 79 76 53 35 25 11 2
87 100 94 93 70 100 100 100 58 100 80 100 100 86 1 0 2 0 0 0 0 0 0 8 42 44 89 94 100 100 100 49 42 78 100 100 100 100 100 100 100 100 100 73 35 34 32 37 16
2 0 0 2 0 0 0 1 2 9 2 0 7 81 48 0 0 1 0 1 0 0 0 0 10 40 57 49 79 74 72 36 42 66 100 60 100 100 100 100 100 100 100 44 37 36 34 60 90
0 0 0 3 0 0 0 0 1 4 2 0 0 1 6 10 0 0 4 5 4 0 0 0 0 21 30 38 44 52 65 33 31 100 100 71 100 100 100 100 100 100 100 56 43 96 98 43 78
0 0 0 0 0 0 0 0 0 0 0 0 0 0 0 2 0 0 0 5 5 4 0 4 14 37 14 30 61 44 58 48 33 68 100 100 85 95 99 100 100 100 100 98 78 97 57 66 55
0 0 0 0 0 0 0 0 0 0 0 0 0 0 0 0 0 0 3 2 3 1 0 0 24 41 47 71 100 96 95 94 62 41 78 81 77 100 65 96 100 100 100 100 100 100 100 21 28
0 0 0 0 0 0 0 0 0 0 0 0 0 0 0 1 73 4 74 5 0 0 0 0 44 66 100 100 100 100 100 100 100 65 98 100 100 68 53 100 92 100 100 100 100 100 100 100 100
0 0 0 0 0 1 3 2 0 0 0 0 0 0 0 0 4 4 98 71 5 2 0 0 32 75 100 100 100 100 100 100 100 100 100 100 82 52 59 85 99 100 100 100 100 100 100 100 100
0 0 0 1 0 3 8 0 0 0 0 0 0 0 0 0 0 0 97 100 5 5 5 5 62 34 94 100 100 100 100 100 100 100 100 98 56 58 57 82 96 100 100 100 100 100 100 100 100
0 0 0 4 64 72 80 76 61 26 0 76 54 10 7 0 0 0 9 32 5 6 15 87 79 94 98 100 100 100 100 100 100 100 100 94 94 78 77 80 90 96 100 100 100 98 100 100 100
0 0 0 5 5 35 55 83 0 28 100 95 100 100 78 60 54 49 35 99 9 45 60 100 84 84 100 100 100 100 100 100 100 100 100 100 99 100 100 100 99 86 100 100 100 100 100 100 100
24 4 10 63 100 95 0 32 99 100 100 100 100 100 100 100 99 100 99 74 100 39 100 100 96 82 65 83 100 100 100 100 100 100 85 100 99 99 100 100 100 100 100 94 98 100 100 100 100
74 92 79 100 100 100 67 20 74 100 100 100 100 100 100 100 100 100 100 100 100 100 100 100 100 96 90 100 100 100 100 100 100 100 94 100 100 100 100 100 100 100 100 100 100 100 100 100 100
84 45 100 99 100 100 100 100 100 100 100 100 100 100 100 100 100 100 100 100 100 100 100 100 100 99 84 100 100 100 100 100 100 100 100 100 97 100 100 100 100 100 100 100 100 100 100 100 100
12 12 87 100 100 100 100 100 100 100 100 100 100 100 100 100 100 100 100 100 100 100 100 100 100 100 100 100 90 91 100 100 100 100 100 100 100 100 100 100 100 100 100 100 100 100 100 100 100
11 18 95 100 100 100 100 100 100 100 100 100 100 100 100 100 100 100 100 100 100 100 100 100 100 100 100 100 100 100 100 100 100 100 100 100 100 100 100 100 100 100 100 100 100 100 100 100 100
52 79 92 100 93 100 100 100 100 100 100 100 100 100 100 100 100 100 100 100 100 100 100 100 100 100 95 98 100 100 100 100 100 100 100 100 100 100 100 100 100 100 100 100 100 100 100 100 100
100 100 100 100 100 100 100 100 100 100 100 100 100 100 100 100 100 100 100 100 99 100 100 100 100 100 100 100 100 100 100 100 100 100 100 100 100 100 100 100 100 100 100 100 100 100 100 100 100

GFSSGP_prec_cloud_117.txt.gz
Cloud_Cover
0 0 0 0 0 0 2 5 0 0 0 0 0 0 0 0 0 0 0 0 0 0 0 0 10 2 0 0 0 0 0 15 21 0 0 0 0 0 0 0 0 0 0 0 0 0 0 0 1
0 0 0 0 0 0 2 0 0 0 0 0 0 0 0 0 0 0 0 0 0 0 0 0 25 6 0 0 0 0 0 0 15 0 0 0 0 4 0 0 0 0 0 0 0 0 0 0 2
0 0 0 0 0 0 0 0 0 0 0 0 0 0 0 0 0 0 0 0 0 0 0 0 12 0 0 0 0 0 0 0 1 4 4 5 34 92 21 0 0 0 0 0 0 0 0 0 4
0 0 0 0 0 0 0 0 0 0 0 0 0 0 0 0 0 0 0 0 0 0 0 20 12 5 1 0 0 5 2 0 2 2 3 49 54 22 27 5 0 0 0 0 0 0 0 0 5
0 0 0 0 10 100 16 1 0 0 2 5 3 0 0 0 0 0 0 0 0 0 0 0 10 14 14 0 0 0 5 5 1 5 5 34 100 100 92 5 5 0 0 0 0 0 0 0 4
0 0 0 45 7 42 90 90 14 5 3 2 1 4 5 3 15 11 3 0 0 0 2 0 18 31 31 16 0 0 1 4 5 0 4 10 100 78 9 5 5 0 0 0 0 0 0 0 0
4 3 6 44 34 99 100 100 100 96 86 11 0 1 5 5 5 12 2 0 0 16 16 20 24 44 35 19 9 1 0 0 1 4 4 5 86 100 28 5 2 0 0 0 0 0 0 0 0
1 0 5 2 85 99 71 91 100 10 23 10 5 5 6 5 0 2 3 0 5 51 60 64 99 100 63 57 30 7 0 0 0 3 5 5 5 35 89 5 1 0 0 2 0 0 0 0 0
5 5 5 80 65 65 5 52 100 100 75 85 95 48 5 16 4 3 4 1 50 95 86 100 100 100 96 100 76 40 15 0 4 1 6 98 8 2 5 5 5 3 5 5 2 5 3 0 2
5 5 55 17 13 4 5 14 100 100 100 100 100 100 41 72 70 23 25 13 3 42 100 100 100 100 100 100 100 99 98 18 13 13 10 33 36 17 6 8 92 71 46 8 15 5 6 6 50
59 92 96 9 5 5 5 5 0 52 99 100 100 100 100 100 97 69 49 4 4 0 35 100 100 100 100 100 100 100 100 100 92 62 45 58 94 96 89 100 100 68 13 57 55 29 11 24 48
94 73 59 37 16 10 39 6 5 72 70 100 100 100 98 5 72 84 6 5 16 2 0 36 100 100 100 86 100 100 100 100 99 93 67 80 100 97 96 58 100 22 45 31 88 21 3 1 33
100 74 61 5 30 31 24 16 71 100 100 100 100 100 100 99 18 5 1 0 0 2 0 2 99 100 100 96 100 100 100 100 100 100 100 76 100 100 57 95 88 22 46 99 100 36 0 0 10
95 60 34 15 31 78 100 90 100 97 94 100 100 100 100 100 100 49 81 9 2 0 0 0 67 100 100 100 100 100 100 100 100 100 100 100 100 100 94 98 67 100 98 100 98 74 5 2 6
5 5 2 0 2 7 1 2 4 67 81 98 100 100 100 100 100 97 23 98 100 52 1 0 0 64 100 100 100 100 100 100 63 100 100 100 100 100 100 100 100 100 82 100 80 31 17 3 10
1 0 0 0 0 0 0 0 0 0 0 0 0 1 55 100 100 100 26 10 40 6 38 82 3 6 52 81 100 100 98 27 26 86 100 100 100 100 100 100 100 100 68 100 81 62 51 30 18
0 0 0 0 0 0 0 0 0 0 0 0 0 0 0 55 100 100 72 8 5 5 5 5 5 37 10 22 51 32 42 8 16 48 100 100 100 100 100 100 100 100 100 100 100 100 45 76 37
0 0 0 0 1 0 0 0 0 0 0 0 0 0 0 0 16 14 79 68 5 3 4 2 5 5 68 5 75 46 71 25 20 8 32 100 100 100 100 100 100 100 100 100 100 100 94 41 34
0 0 0 0 0 0 0 0 0 0 0 0 0 0 0 0 0 0 0 3 0 0 0 0 13 30 90 38 61 100 100 100 99 75 45 100 100 100 100 100 100 100 100 100 100 100 100 100 90
0 0 0 0 0 0 0 0 0 0 0 0 0 0 0 0 0 0 0 0 0 0 0 20 61 53 66 82 15 52 45 76 95 84 100 100 80 100 100 100 100 100 100 100 100 100 100 100 82
0 0 0 0 0 0 0 0 0 0 0 0 0 0 0 0 0 0 0 4 0 2 0 88 100 81 64 99 96 98 87 95 100 100 100 100 46 84 97 100 100 100 100 100 100 100 100 100 100
0 0 0 0 2 2 17 64 0 3 15 74 100 99 99 98 94 67 53 81 64 63 83 5 100 100 100 100 76 100 100 100 100 100 100 100 100 95 97 100 100 100 100 100 100 100 100 100 99
0 0 0 0 5 22 96 94 4 5 100 100 100 100 100 100 100 100 100 100 100 100 100 100 100 100 100 100 100 100 100 100 100 100 100 100 100 100 100 100 100 100 100 100 100 100 100 100 100
0 2 2 3 72 90 96 100 100 83 100 100 100 100 100 100 100 100 100 100 100 100 100 100 100 100 100 100 100 100 100 100 100 100 100 100 100 100 100 100 100 100 100 100 99 96 100 100 95
5 5 12 3 38 90 100 100 100 100 100 100 100 100 100 100 100 100 100 100 100 100 100 100 100 100 100 100 100 100 100 100 100 99 100 100 100 100 100 100 100 100 100 100 100 100 100 100 100
5 33 54 100 50 100 100 100 100 100 100 100 100 100 100 100 100 100 100 100 100 100 100 100 100 100 100 100 100 100 100 100 100 100 100 100 100 100 100 100 100 100 100 100 100 100 100 100 100
36 74 92 100 59 97 100 100 100 100 100 100 100 100 100 100 100 100 100 100 100 100 100 100 100 100 100 100 100 95 100 100 100 100 100 100 100 100 100 100 100 100 100 100 100 100 100 100 100
83 15 93 95 99 83 100 100 100 100 100 100 100 100 100 100 100 100 100 100 100 100 100 100 100 100 100 100 100 100 100 100 100 100 100 100 100 100 100 100 100 100 100 100 100 100 100 100 100
66 90 98 100 99 96 99 100 100 100 100 100 100 100 100 100 100 100 100 100 100 100 100 100 100 100 100 100 100 100 100 100 100 100 100 100 100 100 100 100 100 100 100 100 100 100 100 100 100
95 100 100 100 90 92 100 100 100 100 100 100 100 100 100 100 100 100 100 100 100 100 100 100 100 100 100 100 100 100 100 100 100 100 100 100 100 100 100 100 100 100 100 100 100 100 100 100 100

GFSSGP_prec_cloud_120.txt.gz
Cloud_Cover
0 0 0 0 0 0 0 0 0 0 0 0 0 0 0 0 0 0 0 0 0 0 0 3 0 0 0 0 0 0 1 1 0 0 0 0 0 0 0 0 0 0 0 0 0 0 0 0 0
0 0 0 0 0 0 0 0 0 0 0 0 0 0 0 0 0 0 0 0 0 0 0 0 3 0 0 0 0 0 0 14 0 0 0 0 0 0 0 0 0 5 0 0 0 0 0 0 0
0 0 0 0 0 0 0 0 0 0 0 0 0 0 0 0 0 0 0 0 0 0 0 0 3 0 0 0 0 0 0 2 5 4 2 0 0 3 0 20 7 38 5 0 0 0 0 0 0
0 0 0 0 0 0 0 0 0 0 0 0 0 0 0 0 0 0 0 0 0 0 0 49 15 0 0 0 0 0 0 0 0 0 5 5 0 4 5 7 14 44 5 0 0 0 0 0 0
0 0 0 0 0 0 0 0 0 0 0 0 0 0 0 0 0 0 0 0 0 0 0 7 40 0 0 0 0 0 0 0 0 1 2 5 1 9 92 100 100 100 5 0 0 0 0 0 0
5 0 0 0 0 3 4 1 60 51 1 2 4 6 1 0 4 4 3 5 1 3 1 0 33 5 0 0 0 0 0 0 0 0 0 4 4 4 59 100 100 96 5 4 0 0 0 0 0
23 5 8 5 4 2 4 5 5 5 82 97 82 100 92 14 7 5 3 4 1 4 1 0 0 3 44 0 0 0 0 0 0 0 0 0 0 0 5 100 100 98 5 4 0 0 0 0 0
43 20 21 8 5 7 4 4 5 42 76 12 42 31 20 5 5 5 3 2 5 10 0 8 11 3 0 1 8 0 0 0 0 0 0 0 6 0 5 13 100 100 6 5 5 0 0 3 3
100 82 72 83 45 5 5 5 5 5 5 14 13 6 0 24 13 19 5 6 5 15 12 16 35 35 0 0 4 53 23 1 9 12 9 68 1 1 5 4 6 99 83 5 5 5 13 11 11
100 100 50 67 5 6 5 84 49 44 73 98 100 100 65 92 100 100 100 94 63 27 13 7 55 100 65 61 12 13 3 0 3 3 10 2 30 53 42 5 5 15 8 13 66 5 6 46 9
100 100 99 65 11 62 95 100 99 100 100 100 100 100 100 5 88 100 100 56 59 15 6 12 94 100 100 4 97 33 21 0 41 85 100 93 69 56 73 73 34 15 94 100 59 71 17 8 93
100 100 100 100 100 100 100 55 74 7 94 100 100 100 100 5 5 100 100 100 99 86 93 98 69 87 100 0 0 0 98 38 60 99 100 100 99 78 97 100 100 100 100 95 68 100 67 49 53
100 91 100 100 100 100 100 99 25 74 54 92 100 100 100 100 39 28 92 97 49 13 6 5 5 6 94 2 4 1 73 100 100 100 100 100 100 69 99 94 100 100 100 100 89 100 100 12 38
98 75 25 68 46 25 39 52 66 54 12 94 96 100 100 100 100 100 100 100 100 93 11 24 26 5 37 4 12 24 79 100 100 100 100 87 94 60 62 96 100 100 100 100 93 100 100 13 23
5 5 5 2 5 5 5 5 3 1 0 0 18 100 100 100 100 100 100 100 100 100 100 100 100 72 17 8 76 19 86 100 100 100 100 100 100 100 16 60 55 100 100 100 100 100 98 58 32
5 5 0 0 1 0 0 0 0 0 0 0 0 0 3 73 100 100 100 100 93 100 100 100 100 100 92 59 100 71 5 100 44 62 100 100 100 100 100 100 99 70 100 100 100 100 100 78 68
4 4 0 0 0 0 0 0 0 0 0 0 0 0 0 0 0 69 100 99 100 100 100 100 100 100 99 44 100 59 1 11 0 0 94 100 100 100 100 100 100 100 100 100 100 100 100 100 100
0 0 0 0 0 0 0 0 0 0 0 0 0 0 0 0 0 1 16 55 73 28 20 100 100 100 100 100 84 100 86 0 0 0 4 100 100 100 100 100 100 100 100 100 100 100 97 100 100
0 0 0 0 0 0 0 0 0 0 0 5 5 0 0 0 0 0 0 0 1 1 0 4 56 100 100 100 56 100 100 5 0 0 0 17 100 100 100 100 100 100 100 88 100 100 100 100 100
0 0 0 0 0 0 0 0 0 0 3 46 4 8 0 0 0 0 1 0 0 0 0 0 4 5 99 100 100 89 5 0 0 0 1 5 92 100 100 100 100 100 100 100 100 98 100 100 100
0 0 0 0 0 0 0 0 5 44 20 6 17 64 56 61 38 14 0 2 29 0 0 0 2 5 28 100 99 82 12 0 3 5 6 6 47 100 100 100 100 100 100 100 100 90 100 100 100
0 0 0 0 0 0 2 11 81 59 67 5 65 75 100 100 100 100 100 100 99 90 69 9 70 29 17 97 98 90 7 3 52 6 12 20 88 16 100 100 100 100 100 100 100 100 100 100 100
0 0 0 2 5 9 4 19 6 54 96 9 80 98 100 100 100 100 100 100 100 100 100 98 100 100 100 100 98 14 58 8 42 34 99 82 100 36 100 100 100 100 100 100 100 98 100 100 100
2 4 12 5 5 41 10 48 75 74 100 84 100 100 100 100 100 100 100 100 100 100 100 100 100 100 100 100 100 99 100 100 100 100 100 100 100 88 100 100 100 100 100 100 100 100 100 100 100
5 92 39 100 100 47 14 30 100 95 97 100 100 100 100 100 100 100 100 100 100 100 100 100 100 100 100 100 100 100 100 100 100 100 100 100 100 100 100 97 100 100 100 100 100 100 100 100 100
8 73 96 100 98 93 73 96 100 82 80 100 100 100 100 100 100 100 100 100 100 100 100 100 100 100 100 100 100 100 100 100 100 100 100 100 100 100 100 100 100 100 100 100 100 100 100 98 100
72 97 87 73 94 100 98 100 98 96 88 96 100 100 100 100 100 100 100 100 100 100 100 100 100 100 100 100 98 99 100 100 100 100 100 100 100 98 100 100 100 100 100 100 100 100 100 100 100
18 50 100 94 94 92 100 97 100 100 100 100 100 100 100 100 100 100 100 100 100 100 100 100 100 100 100 100 100 100 96 100 100 100 100 100 100 100 100 100 100 100 100 100 100 100 100 100 100
99 96 100 86 97 100 100 100 100 100 100 100 100 100 100 100 100 100 100 100 100 100 100 100 100 100 100 100 100 100 100 100 100 100 100 100 100 100 100 100 100 100 100 100 100 100 100 100 100
5 99 100 100 100 100 100 100 100 100 100 100 100 100 100 100 100 100 100 100 100 100 100 100 100 100 100 100 100 100 100 100 100 100 100 100 98 100 100 100 100 100 100 100 100 100 100 100 100